Time,TemperatureF,DewpointF,PressureIn,WindDirection,WindDirectionDegrees,WindSpeedMPH,WindSpeedGustMPH,Humidity,HourlyPrecipIn,Conditions,Clouds,dailyrainin,SoftwareType,DateUTC
2013-03-24 01:06:00,46.7,27.5,29.83,ESE,117,4.0,6.0,47,0.00,,,0.00,Wunderground v.1.15,2013-03-24 05:06:00,
2013-03-24 01:14:00,46.6,27.4,29.83,East,84,4.0,6.0,47,0.00,,,0.00,Wunderground v.1.15,2013-03-24 05:14:00,
2013-03-24 01:20:00,46.6,27.4,29.83,East,94,4.0,6.0,47,0.00,,,0.00,Wunderground v.1.15,2013-03-24 05:20:00,
2013-03-24 01:27:00,46.5,27.3,29.83,East,98,3.0,4.0,47,0.00,,,0.00,Wunderground v.1.15,2013-03-24 05:27:00,
2013-03-24 01:31:00,46.5,27.3,29.84,ESE,123,3.0,4.0,47,0.00,,,0.00,Wunderground v.1.15,2013-03-24 05:31:00,
2013-03-24 01:36:00,46.4,27.2,29.85,ESE,117,3.0,3.0,47,0.00,,,0.00,Wunderground v.1.15,2013-03-24 05:36:00,
2013-03-24 01:37:00,46.4,27.2,29.85,SW,236,3.0,3.0,47,0.00,,,0.00,Wunderground v.1.15,2013-03-24 05:37:00,
2013-03-24 01:38:00,46.4,27.8,29.84,ESE,117,3.0,5.0,48,0.00,,,0.00,Wunderground v.1.15,2013-03-24 05:38:00,
2013-03-24 01:43:00,46.4,26.7,29.84,East,97,5.0,7.0,46,0.00,,,0.00,Wunderground v.1.15,2013-03-24 05:43:00,
2013-03-24 01:44:00,46.4,27.2,29.84,East,88,5.0,7.0,47,0.00,,,0.00,Wunderground v.1.15,2013-03-24 05:44:00,
2013-03-24 01:49:00,46.3,27.2,29.85,East,98,5.0,6.0,47,0.00,,,0.00,Wunderground v.1.15,2013-03-24 05:49:00,
2013-03-24 01:51:00,46.3,27.2,29.85,East,86,5.0,6.0,47,0.00,,,0.00,Wunderground v.1.15,2013-03-24 05:51:00,
2013-03-24 01:54:00,46.3,28.2,29.85,East,84,4.0,7.0,49,0.00,,,0.00,Wunderground v.1.15,2013-03-24 05:54:00,
2013-03-24 01:55:00,46.2,27.6,29.85,East,98,4.0,4.0,48,0.00,,,0.00,Wunderground v.1.15,2013-03-24 05:55:00,
2013-03-24 02:00:00,46.0,28.9,29.85,ESE,111,3.0,7.0,51,0.00,,,0.00,Wunderground v.1.15,2013-03-24 06:00:00,
2013-03-24 02:01:00,46.0,28.9,29.85,East,90,4.0,7.0,51,0.00,,,0.00,Wunderground v.1.15,2013-03-24 06:01:00,
2013-03-24 02:02:00,45.9,28.8,29.85,ENE,74,4.0,7.0,51,0.00,,,0.00,Wunderground v.1.15,2013-03-24 06:02:00,
2013-03-24 02:04:00,45.8,29.2,29.85,East,101,4.0,7.0,52,0.00,,,0.00,Wunderground v.1.15,2013-03-24 06:04:00,
2013-03-24 02:07:00,45.6,29.4,29.84,East,97,4.0,5.0,53,0.00,,,0.00,Wunderground v.1.15,2013-03-24 06:07:00,
2013-03-24 02:08:00,45.5,29.3,29.85,ESE,109,4.0,5.0,53,0.00,,,0.00,Wunderground v.1.15,2013-03-24 06:08:00,
2013-03-24 02:14:00,45.3,30.1,29.85,East,88,3.0,6.0,55,0.00,,,0.00,Wunderground v.1.15,2013-03-24 06:14:00,
2013-03-24 02:17:00,45.2,30.0,29.84,East,87,4.0,4.0,55,0.00,,,0.00,Wunderground v.1.15,2013-03-24 06:17:00,
2013-03-24 02:21:00,44.8,30.0,29.85,ESE,116,3.0,6.0,56,0.00,,,0.00,Wunderground v.1.15,2013-03-24 06:21:00,
2013-03-24 02:23:00,44.7,30.0,29.84,East,90,3.0,6.0,56,0.00,,,0.00,Wunderground v.1.15,2013-03-24 06:23:00,
2013-03-24 02:25:00,44.5,30.6,29.84,East,84,3.0,3.0,58,0.00,,,0.00,Wunderground v.1.15,2013-03-24 06:25:00,
2013-03-24 02:26:00,38.2,35.5,29.53,East,99,2.0,4.0,90,0.00,,,0.42,Wunderground v.1.15,2013-03-24 06:26:00,
2013-03-24 02:27:00,44.3,31.7,29.84,East,86,3.0,6.0,61,0.00,,,0.00,Wunderground v.1.15,2013-03-24 06:27:00,
2013-03-24 02:28:00,44.2,31.6,29.84,East,82,3.0,6.0,61,0.00,,,0.00,Wunderground v.1.15,2013-03-24 06:28:00,
2013-03-24 02:32:00,43.8,32.0,29.84,East,81,3.0,6.0,63,0.00,,,0.00,Wunderground v.1.15,2013-03-24 06:32:00,
2013-03-24 02:36:00,43.3,31.9,29.84,East,92,3.0,3.0,64,0.00,,,0.00,Wunderground v.1.15,2013-03-24 06:36:00,
2013-03-24 02:38:00,38.2,35.5,29.54,ESE,117,3.0,5.0,90,0.00,,,0.42,Wunderground v.1.15,2013-03-24 06:38:00,
2013-03-24 02:39:00,43.2,32.6,29.85,East,92,3.0,3.0,66,0.00,,,0.00,Wunderground v.1.15,2013-03-24 06:39:00,
2013-03-24 02:40:00,43.1,32.5,29.85,East,90,3.0,5.0,66,0.00,,,0.01,Wunderground v.1.15,2013-03-24 06:40:00,
2013-03-24 02:41:00,38.2,35.5,29.54,ESE,117,2.0,2.0,90,0.00,,,0.42,Wunderground v.1.15,2013-03-24 06:41:00,
2013-03-24 02:43:00,42.9,32.7,29.85,East,86,3.0,5.0,67,0.00,,,0.01,Wunderground v.1.15,2013-03-24 06:43:00,
2013-03-24 02:46:00,42.7,32.1,29.85,East,88,3.0,3.0,66,0.00,,,0.01,Wunderground v.1.15,2013-03-24 06:46:00,
2013-03-24 02:47:00,42.7,32.5,29.84,East,81,3.0,5.0,67,0.00,,,0.01,Wunderground v.1.15,2013-03-24 06:47:00,
2013-03-24 02:48:00,38.2,35.5,29.53,ENE,66,1.0,4.0,90,0.00,,,0.42,Wunderground v.1.15,2013-03-24 06:48:00,
2013-03-24 02:51:00,38.2,35.5,29.53,ENE,73,1.0,1.0,90,0.00,,,0.42,Wunderground v.1.15,2013-03-24 06:51:00,
2013-03-24 02:52:00,42.6,32.0,29.84,East,91,3.0,5.0,66,0.00,,,0.01,Wunderground v.1.15,2013-03-24 06:52:00,
2013-03-24 02:55:00,42.6,32.4,29.83,East,90,3.0,3.0,67,0.00,,,0.01,Wunderground v.1.15,2013-03-24 06:55:00,
2013-03-24 03:01:00,42.4,32.2,29.83,East,86,4.0,6.0,67,0.00,,,0.01,Wunderground v.1.15,2013-03-24 07:01:00,
2013-03-24 03:02:00,38.1,35.4,29.54,ESE,123,1.0,1.0,90,0.00,,,0.42,Wunderground v.1.15,2013-03-24 07:02:00,
2013-03-24 03:04:00,38.1,35.4,29.54,ESE,123,0.0,1.0,90,0.00,,,0.42,Wunderground v.1.15,2013-03-24 07:04:00,
2013-03-24 03:05:00,38.1,35.4,29.54,ESE,123,0.0,1.0,90,0.00,,,0.42,Wunderground v.1.15,2013-03-24 07:05:00,
2013-03-24 03:06:00,38.1,35.4,29.54,ESE,123,0.0,1.0,90,0.00,,,0.42,Wunderground v.1.15,2013-03-24 07:06:00,
2013-03-24 03:07:00,42.3,32.5,29.82,East,86,4.0,4.0,68,0.00,,,0.02,Wunderground v.1.15,2013-03-24 07:07:00,
2013-03-24 03:09:00,38.1,35.4,29.54,ESE,123,0.0,1.0,90,0.00,,,0.42,Wunderground v.1.15,2013-03-24 07:09:00,
2013-03-24 03:10:00,38.1,35.4,29.53,ESE,123,0.0,2.0,90,0.00,,,0.42,Wunderground v.1.15,2013-03-24 07:10:00,
2013-03-24 03:12:00,38.1,35.7,29.53,ESE,123,1.0,2.0,91,0.00,,,0.42,Wunderground v.1.15,2013-03-24 07:12:00,
2013-03-24 03:14:00,41.9,32.5,29.82,East,86,3.0,5.0,69,0.00,,,0.02,Wunderground v.1.15,2013-03-24 07:14:00,
2013-03-24 03:15:00,41.9,32.5,29.82,ENE,73,3.0,5.0,69,0.00,,,0.02,Wunderground v.1.15,2013-03-24 07:15:00,
2013-03-24 03:16:00,38.0,35.3,29.52,ESE,123,1.0,2.0,90,0.00,,,0.43,Wunderground v.1.15,2013-03-24 07:16:00,
2013-03-24 03:18:00,38.0,35.6,29.52,ESE,123,1.0,2.0,91,0.00,,,0.43,Wunderground v.1.15,2013-03-24 07:18:00,
2013-03-24 03:19:00,37.9,35.5,29.52,ESE,123,1.0,2.0,91,0.00,,,0.43,Wunderground v.1.15,2013-03-24 07:19:00,
2013-03-24 03:20:00,37.9,35.5,29.51,ESE,123,1.0,1.0,91,0.08,,,0.44,Wunderground v.1.15,2013-03-24 07:20:00,
2013-03-24 03:21:00,41.7,32.6,29.82,East,86,3.0,5.0,70,0.00,,,0.02,Wunderground v.1.15,2013-03-24 07:21:00,
2013-03-24 03:23:00,41.5,33.5,29.82,ENE,75,3.0,5.0,73,0.00,,,0.02,Wunderground v.1.15,2013-03-24 07:23:00,
2013-03-24 03:24:00,37.8,35.4,29.51,ESE,123,1.0,1.0,91,0.08,,,0.44,Wunderground v.1.15,2013-03-24 07:24:00,
2013-03-24 03:25:00,41.3,32.6,29.81,East,86,3.0,3.0,71,0.00,,,0.02,Wunderground v.1.15,2013-03-24 07:25:00,
2013-03-24 03:26:00,37.8,35.4,29.51,ESE,123,1.0,1.0,91,0.08,,,0.44,Wunderground v.1.15,2013-03-24 07:26:00,
2013-03-24 03:27:00,37.7,35.3,29.51,ESE,123,1.0,2.0,91,0.08,,,0.44,Wunderground v.1.15,2013-03-24 07:27:00,
2013-03-24 03:28:00,37.8,35.4,29.51,ESE,117,1.0,2.0,91,0.07,,,0.44,Wunderground v.1.15,2013-03-24 07:28:00,
2013-03-24 03:30:00,41.1,32.4,29.81,ENE,66,3.0,4.0,71,0.00,,,0.02,Wunderground v.1.15,2013-03-24 07:30:00,
2013-03-24 03:31:00,41.1,32.8,29.81,ENE,75,3.0,4.0,72,0.00,,,0.02,Wunderground v.1.15,2013-03-24 07:31:00,
2013-03-24 03:32:00,37.8,35.4,29.51,East,96,1.0,2.0,91,0.05,,,0.44,Wunderground v.1.15,2013-03-24 07:32:00,
2013-03-24 03:33:00,37.8,35.4,29.51,East,96,1.0,2.0,91,0.04,,,0.44,Wunderground v.1.15,2013-03-24 07:33:00,
2013-03-24 03:34:00,37.8,35.4,29.50,East,96,1.0,2.0,91,0.04,,,0.44,Wunderground v.1.15,2013-03-24 07:34:00,
2013-03-24 03:35:00,37.7,35.3,29.50,East,96,1.0,2.0,91,0.04,,,0.44,Wunderground v.1.15,2013-03-24 07:35:00,
2013-03-24 03:36:00,40.7,33.1,29.80,ENE,68,3.0,4.0,74,0.00,,,0.02,Wunderground v.1.15,2013-03-24 07:36:00,
2013-03-24 03:37:00,37.7,35.6,29.49,East,96,1.0,3.0,92,0.00,,,0.44,Wunderground v.1.15,2013-03-24 07:37:00,
2013-03-24 03:38:00,37.7,35.6,29.49,East,90,2.0,3.0,92,0.00,,,0.44,Wunderground v.1.15,2013-03-24 07:38:00,
2013-03-24 03:39:00,37.7,35.6,29.48,East,89,2.0,3.0,92,0.00,,,0.44,Wunderground v.1.15,2013-03-24 07:39:00,
2013-03-24 03:40:00,40.6,33.0,29.80,ENE,59,3.0,4.0,74,0.00,,,0.02,Wunderground v.1.15,2013-03-24 07:40:00,
2013-03-24 03:41:00,40.6,32.6,29.80,East,96,3.0,4.0,73,0.00,,,0.02,Wunderground v.1.15,2013-03-24 07:41:00,
2013-03-24 03:42:00,37.6,35.5,29.47,East,81,2.0,4.0,92,0.00,,,0.44,Wunderground v.1.15,2013-03-24 07:42:00,
2013-03-24 03:43:00,37.6,35.5,29.47,ENE,69,2.0,4.0,92,0.00,,,0.45,Wunderground v.1.15,2013-03-24 07:43:00,
2013-03-24 03:46:00,40.7,33.1,29.79,East,89,4.0,7.0,74,0.00,,,0.02,Wunderground v.1.15,2013-03-24 07:46:00,
2013-03-24 03:47:00,40.7,32.7,29.79,East,85,4.0,7.0,73,0.00,,,0.02,Wunderground v.1.15,2013-03-24 07:47:00,
2013-03-24 03:48:00,37.5,35.4,29.48,East,84,3.0,4.0,92,0.00,,,0.45,Wunderground v.1.15,2013-03-24 07:48:00,
2013-03-24 03:49:00,37.5,35.4,29.48,ESE,106,3.0,4.0,92,0.00,,,0.45,Wunderground v.1.15,2013-03-24 07:49:00,
2013-03-24 03:50:00,40.6,33.0,29.78,East,86,4.0,7.0,74,0.00,,,0.03,Wunderground v.1.15,2013-03-24 07:50:00,
2013-03-24 03:51:00,37.6,35.5,29.48,East,89,2.0,3.0,92,0.00,,,0.45,Wunderground v.1.15,2013-03-24 07:51:00,
2013-03-24 03:52:00,37.6,35.5,29.48,East,85,2.0,3.0,92,0.00,,,0.45,Wunderground v.1.15,2013-03-24 07:52:00,
2013-03-24 03:53:00,37.6,35.5,29.48,East,85,2.0,3.0,92,0.00,,,0.45,Wunderground v.1.15,2013-03-24 07:53:00,
2013-03-24 03:54:00,37.6,35.5,29.48,East,85,2.0,3.0,92,0.00,,,0.45,Wunderground v.1.15,2013-03-24 07:54:00,
2013-03-24 03:55:00,40.5,32.9,29.78,East,81,5.0,7.0,74,0.10,,,0.04,Wunderground v.1.15,2013-03-24 07:55:00,
2013-03-24 03:56:00,40.4,33.1,29.78,ENE,78,5.0,5.0,75,0.10,,,0.04,Wunderground v.1.15,2013-03-24 07:56:00,
2013-03-24 03:57:00,40.3,33.0,29.78,ENE,78,5.0,5.0,75,0.10,,,0.04,Wunderground v.1.15,2013-03-24 07:57:00,
2013-03-24 03:58:00,37.6,35.5,29.49,East,85,1.0,3.0,92,0.00,,,0.45,Wunderground v.1.15,2013-03-24 07:58:00,
2013-03-24 03:59:00,37.7,35.6,29.49,East,85,1.0,3.0,92,0.04,,,0.46,Wunderground v.1.15,2013-03-24 07:59:00,
2013-03-24 04:00:00,37.7,35.6,29.49,East,85,1.0,1.0,92,0.04,,,0.46,Wunderground v.1.15,2013-03-24 08:00:00,
2013-03-24 04:01:00,37.7,35.6,29.50,East,85,1.0,1.0,92,0.04,,,0.46,Wunderground v.1.15,2013-03-24 08:01:00,
2013-03-24 04:02:00,40.0,33.4,29.78,East,91,5.0,7.0,77,0.07,,,0.04,Wunderground v.1.15,2013-03-24 08:02:00,
2013-03-24 04:03:00,40.0,33.4,29.78,East,88,5.0,7.0,77,0.06,,,0.04,Wunderground v.1.15,2013-03-24 08:03:00,
2013-03-24 04:04:00,37.7,35.6,29.50,East,85,1.0,1.0,92,0.11,,,0.47,Wunderground v.1.15,2013-03-24 08:04:00,
2013-03-24 04:05:00,37.7,35.6,29.50,East,85,1.0,1.0,92,0.11,,,0.47,Wunderground v.1.15,2013-03-24 08:05:00,
2013-03-24 04:06:00,37.7,35.6,29.50,East,85,1.0,1.0,92,0.11,,,0.47,Wunderground v.1.15,2013-03-24 08:06:00,
2013-03-24 04:07:00,39.7,33.4,29.79,East,80,4.0,5.0,78,0.05,,,0.05,Wunderground v.1.15,2013-03-24 08:07:00,
2013-03-24 04:09:00,39.6,33.6,29.79,ENE,65,3.0,5.0,79,0.05,,,0.05,Wunderground v.1.15,2013-03-24 08:09:00,
2013-03-24 04:10:00,37.6,35.5,29.49,East,85,0.0,0.0,92,0.15,,,0.48,Wunderground v.1.15,2013-03-24 08:10:00,
2013-03-24 04:12:00,37.6,35.5,29.49,East,85,1.0,3.0,92,0.15,,,0.48,Wunderground v.1.15,2013-03-24 08:12:00,
2013-03-24 04:13:00,39.4,33.1,29.79,ENE,60,3.0,5.0,78,0.08,,,0.05,Wunderground v.1.15,2013-03-24 08:13:00,
2013-03-24 04:14:00,39.3,33.3,29.79,NE,50,2.0,5.0,79,0.08,,,0.06,Wunderground v.1.15,2013-03-24 08:14:00,
2013-03-24 04:15:00,37.6,35.8,29.49,East,84,1.0,3.0,93,0.09,,,0.48,Wunderground v.1.15,2013-03-24 08:15:00,
2013-03-24 04:17:00,37.7,35.9,29.49,East,84,2.0,3.0,93,0.07,,,0.49,Wunderground v.1.15,2013-03-24 08:17:00,
2013-03-24 04:18:00,37.7,35.9,29.49,WNW,289,2.0,4.0,93,0.07,,,0.49,Wunderground v.1.15,2013-03-24 08:18:00,
2013-03-24 04:19:00,37.7,35.9,29.49,NW,310,2.0,4.0,93,0.07,,,0.49,Wunderground v.1.15,2013-03-24 08:19:00,
2013-03-24 04:20:00,39.3,33.3,29.78,ENE,61,2.0,4.0,79,0.08,,,0.06,Wunderground v.1.15,2013-03-24 08:20:00,
2013-03-24 04:21:00,37.7,35.9,29.49,NW,309,2.0,2.0,93,0.24,,,0.50,Wunderground v.1.15,2013-03-24 08:21:00,
2013-03-24 04:22:00,39.4,33.1,29.78,East,92,3.0,5.0,78,0.06,,,0.06,Wunderground v.1.15,2013-03-24 08:22:00,
2013-03-24 04:23:00,37.7,35.9,29.49,ENE,61,2.0,2.0,93,0.20,,,0.51,Wunderground v.1.15,2013-03-24 08:23:00,
2013-03-24 04:26:00,39.4,33.4,29.77,East,83,3.0,3.0,79,0.05,,,0.06,Wunderground v.1.15,2013-03-24 08:26:00,
2013-03-24 04:27:00,37.7,35.9,29.47,East,84,2.0,5.0,93,0.20,,,0.52,Wunderground v.1.15,2013-03-24 08:27:00,
2013-03-24 04:28:00,39.3,33.6,29.77,East,88,3.0,6.0,80,0.04,,,0.07,Wunderground v.1.15,2013-03-24 08:28:00,
2013-03-24 04:29:00,37.7,35.9,29.46,East,84,2.0,5.0,93,0.18,,,0.52,Wunderground v.1.15,2013-03-24 08:29:00,
2013-03-24 04:30:00,39.3,33.6,29.77,ESE,114,3.0,6.0,80,0.04,,,0.07,Wunderground v.1.15,2013-03-24 08:30:00,
2013-03-24 04:31:00,37.8,36.0,29.46,ENE,65,2.0,3.0,93,0.09,,,0.53,Wunderground v.1.15,2013-03-24 08:31:00,
2013-03-24 04:32:00,39.2,33.9,29.78,East,92,3.0,6.0,81,0.13,,,0.07,Wunderground v.1.15,2013-03-24 08:32:00,
2013-03-24 04:33:00,37.9,36.1,29.46,East,80,3.0,5.0,93,0.09,,,0.53,Wunderground v.1.15,2013-03-24 08:33:00,
2013-03-24 04:35:00,38.0,36.2,29.46,East,79,3.0,5.0,93,0.09,,,0.53,Wunderground v.1.15,2013-03-24 08:35:00,
2013-03-24 04:36:00,39.0,33.4,29.77,ENE,78,3.0,3.0,80,0.13,,,0.08,Wunderground v.1.15,2013-03-24 08:36:00,
2013-03-24 04:38:00,39.0,33.7,29.77,ENE,78,3.0,3.0,81,0.10,,,0.08,Wunderground v.1.15,2013-03-24 08:38:00,
2013-03-24 04:39:00,38.1,36.3,29.48,ESE,117,3.0,5.0,93,0.09,,,0.54,Wunderground v.1.15,2013-03-24 08:39:00,
2013-03-24 04:40:00,38.9,33.9,29.77,ESE,105,2.0,4.0,82,0.07,,,0.08,Wunderground v.1.15,2013-03-24 08:40:00,
2013-03-24 04:41:00,38.1,36.3,29.49,SSE,148,3.0,3.0,93,0.09,,,0.54,Wunderground v.1.15,2013-03-24 08:41:00,
2013-03-24 04:44:00,38.8,33.8,29.76,ENE,78,3.0,4.0,82,0.05,,,0.08,Wunderground v.1.15,2013-03-24 08:44:00,
2013-03-24 04:45:00,38.7,34.0,29.76,ENE,68,3.0,3.0,83,0.05,,,0.08,Wunderground v.1.15,2013-03-24 08:45:00,
2013-03-24 04:46:00,38.2,36.4,29.47,ENE,67,1.0,3.0,93,0.07,,,0.54,Wunderground v.1.15,2013-03-24 08:46:00,
2013-03-24 04:47:00,38.7,34.0,29.76,East,80,3.0,3.0,83,0.04,,,0.08,Wunderground v.1.15,2013-03-24 08:47:00,
2013-03-24 04:49:00,38.1,36.3,29.48,East,81,1.0,3.0,93,0.05,,,0.54,Wunderground v.1.15,2013-03-24 08:49:00,
2013-03-24 04:50:00,38.1,36.3,29.47,East,98,1.0,2.0,93,0.05,,,0.55,Wunderground v.1.15,2013-03-24 08:50:00,
2013-03-24 04:51:00,38.6,33.9,29.76,ENE,77,3.0,3.0,83,0.00,,,0.08,Wunderground v.1.15,2013-03-24 08:51:00,
2013-03-24 04:53:00,38.6,33.9,29.76,East,92,3.0,3.0,83,0.00,,,0.09,Wunderground v.1.15,2013-03-24 08:53:00,
2013-03-24 04:54:00,38.6,33.9,29.76,East,92,3.0,3.0,83,0.00,,,0.09,Wunderground v.1.15,2013-03-24 08:54:00,
2013-03-24 04:55:00,38.1,36.3,29.47,East,94,2.0,2.0,93,0.05,,,0.55,Wunderground v.1.15,2013-03-24 08:55:00,
2013-03-24 04:56:00,38.5,34.1,29.76,East,84,3.0,5.0,84,0.00,,,0.09,Wunderground v.1.15,2013-03-24 08:56:00,
2013-03-24 04:57:00,38.1,36.3,29.47,East,94,1.0,3.0,93,0.10,,,0.56,Wunderground v.1.15,2013-03-24 08:57:00,
2013-03-24 04:59:00,38.2,36.4,29.47,East,94,1.0,3.0,93,0.10,,,0.56,Wunderground v.1.15,2013-03-24 08:59:00,
2013-03-24 05:00:00,38.4,34.0,29.75,East,80,3.0,5.0,84,0.07,,,0.10,Wunderground v.1.15,2013-03-24 09:00:00,
2013-03-24 05:01:00,38.3,36.5,29.47,North,360,1.0,1.0,93,0.10,,,0.56,Wunderground v.1.15,2013-03-24 09:01:00,
2013-03-24 05:02:00,38.4,34.0,29.75,East,79,3.0,5.0,84,0.07,,,0.10,Wunderground v.1.15,2013-03-24 09:02:00,
2013-03-24 05:04:00,38.3,36.5,29.47,ENE,59,1.0,4.0,93,0.07,,,0.56,Wunderground v.1.15,2013-03-24 09:04:00,
2013-03-24 05:05:00,38.3,34.2,29.74,ENE,69,3.0,3.0,85,0.07,,,0.10,Wunderground v.1.15,2013-03-24 09:05:00,
2013-03-24 05:06:00,38.2,36.4,29.47,East,91,1.0,4.0,93,0.07,,,0.57,Wunderground v.1.15,2013-03-24 09:06:00,
2013-03-24 05:07:00,38.2,34.1,29.74,ENE,76,2.0,3.0,85,0.07,,,0.10,Wunderground v.1.15,2013-03-24 09:07:00,
2013-03-24 05:08:00,38.3,36.5,29.47,East,91,2.0,4.0,93,0.07,,,0.57,Wunderground v.1.15,2013-03-24 09:08:00,
2013-03-24 05:10:00,38.3,36.5,29.47,East,82,2.0,2.0,93,0.07,,,0.57,Wunderground v.1.15,2013-03-24 09:10:00,
2013-03-24 05:12:00,38.1,34.3,29.73,East,89,4.0,8.0,86,0.06,,,0.11,Wunderground v.1.15,2013-03-24 09:12:00,
2013-03-24 05:16:00,38.2,36.4,29.48,ENE,64,2.0,3.0,93,0.08,,,0.58,Wunderground v.1.15,2013-03-24 09:16:00,
2013-03-24 05:17:00,37.9,34.1,29.71,East,80,5.0,7.0,86,0.13,,,0.12,Wunderground v.1.15,2013-03-24 09:17:00,
2013-03-24 05:18:00,37.9,34.4,29.70,ESE,107,5.0,7.0,87,0.12,,,0.12,Wunderground v.1.15,2013-03-24 09:18:00,
2013-03-24 05:19:00,37.9,34.1,29.70,East,88,6.0,7.0,86,0.09,,,0.12,Wunderground v.1.15,2013-03-24 09:19:00,
2013-03-24 05:21:00,38.4,36.6,29.47,ESE,102,3.0,3.0,93,0.07,,,0.58,Wunderground v.1.15,2013-03-24 09:21:00,
2013-03-24 05:22:00,38.4,36.6,29.47,East,84,3.0,3.0,93,0.06,,,0.58,Wunderground v.1.15,2013-03-24 09:22:00,
2013-03-24 05:23:00,37.8,34.0,29.70,East,91,6.0,8.0,86,0.06,,,0.12,Wunderground v.1.15,2013-03-24 09:23:00,
2013-03-24 05:26:00,37.8,34.0,29.69,East,80,6.0,6.0,86,0.05,,,0.12,Wunderground v.1.15,2013-03-24 09:26:00,
2013-03-24 05:29:00,37.8,34.0,29.70,East,86,6.0,7.0,86,0.04,,,0.12,Wunderground v.1.15,2013-03-24 09:29:00,
2013-03-24 05:32:00,38.3,36.5,29.47,East,101,1.0,2.0,93,0.00,,,0.58,Wunderground v.1.15,2013-03-24 09:32:00,
2013-03-24 05:33:00,37.8,34.0,29.72,ENE,71,4.0,7.0,86,0.00,,,0.12,Wunderground v.1.15,2013-03-24 09:33:00,
2013-03-24 05:34:00,38.2,36.4,29.47,East,93,1.0,3.0,93,0.00,,,0.58,Wunderground v.1.15,2013-03-24 09:34:00,
2013-03-24 05:36:00,37.8,34.0,29.73,ENE,57,3.0,4.0,86,0.00,,,0.12,Wunderground v.1.15,2013-03-24 09:36:00,
2013-03-24 05:37:00,37.9,34.1,29.73,NE,40,3.0,4.0,86,0.00,,,0.12,Wunderground v.1.15,2013-03-24 09:37:00,
2013-03-24 05:39:00,37.8,34.0,29.74,North,350,3.0,4.0,86,0.00,,,0.13,Wunderground v.1.15,2013-03-24 09:39:00,
2013-03-24 05:42:00,38.3,36.5,29.47,East,88,1.0,2.0,93,0.00,,,0.58,Wunderground v.1.15,2013-03-24 09:42:00,
2013-03-24 05:44:00,37.7,34.2,29.74,NNE,25,2.0,4.0,87,0.00,,,0.13,Wunderground v.1.15,2013-03-24 09:44:00,
2013-03-24 05:46:00,38.3,36.5,29.46,East,98,1.0,2.0,93,0.00,,,0.58,Wunderground v.1.15,2013-03-24 09:46:00,
2013-03-24 05:49:00,37.7,34.2,29.74,ENE,59,2.0,3.0,87,0.07,,,0.14,Wunderground v.1.15,2013-03-24 09:49:00,
2013-03-24 05:51:00,38.3,36.5,29.46,ESE,108,1.0,1.0,93,0.00,,,0.58,Wunderground v.1.15,2013-03-24 09:51:00,
2013-03-24 05:53:00,37.8,34.0,29.73,ENE,74,2.0,3.0,86,0.07,,,0.14,Wunderground v.1.15,2013-03-24 09:53:00,
2013-03-24 05:54:00,37.8,34.3,29.73,North,5,2.0,6.0,87,0.07,,,0.14,Wunderground v.1.15,2013-03-24 09:54:00,
2013-03-24 05:55:00,38.3,36.5,29.45,ESE,108,1.0,1.0,93,0.00,,,0.58,Wunderground v.1.15,2013-03-24 09:55:00,
2013-03-24 05:58:00,37.7,33.9,29.72,NE,56,3.0,4.0,86,0.22,,,0.16,Wunderground v.1.15,2013-03-24 09:58:00,
2013-03-24 06:01:00,37.7,34.2,29.72,NE,56,3.0,4.0,87,0.16,,,0.16,Wunderground v.1.15,2013-03-24 10:01:00,
2013-03-24 06:06:00,38.5,36.7,29.45,ESE,108,1.0,1.0,93,0.00,,,0.58,Wunderground v.1.15,2013-03-24 10:06:00,
2013-03-24 06:07:00,37.5,34.0,29.72,ENE,76,3.0,3.0,87,0.06,,,0.16,Wunderground v.1.15,2013-03-24 10:07:00,
2013-03-24 06:08:00,38.6,36.8,29.45,ESE,108,1.0,2.0,93,0.00,,,0.58,Wunderground v.1.15,2013-03-24 10:08:00,
2013-03-24 06:09:00,37.5,34.0,29.73,ENE,59,3.0,4.0,87,0.05,,,0.16,Wunderground v.1.15,2013-03-24 10:09:00,
2013-03-24 06:10:00,38.6,36.8,29.45,ESE,108,1.0,1.0,93,0.00,,,0.58,Wunderground v.1.15,2013-03-24 10:10:00,
2013-03-24 06:11:00,38.6,36.8,29.45,ESE,108,1.0,1.0,93,0.00,,,0.58,Wunderground v.1.15,2013-03-24 10:11:00,
2013-03-24 06:12:00,38.6,36.8,29.45,ESE,108,1.0,1.0,93,0.00,,,0.58,Wunderground v.1.15,2013-03-24 10:12:00,
2013-03-24 06:14:00,38.5,36.7,29.46,ESE,108,1.0,1.0,93,0.00,,,0.58,Wunderground v.1.15,2013-03-24 10:14:00,
2013-03-24 06:15:00,37.5,33.7,29.74,NE,42,3.0,3.0,86,0.00,,,0.16,Wunderground v.1.15,2013-03-24 10:15:00,
2013-03-24 06:16:00,38.5,36.7,29.46,ESE,108,0.0,1.0,93,0.00,,,0.58,Wunderground v.1.15,2013-03-24 10:16:00,
2013-03-24 06:17:00,38.5,36.7,29.46,ESE,108,0.0,1.0,93,0.00,,,0.58,Wunderground v.1.15,2013-03-24 10:17:00,
2013-03-24 06:18:00,38.5,36.7,29.46,ESE,108,0.0,1.0,93,0.00,,,0.58,Wunderground v.1.15,2013-03-24 10:18:00,
2013-03-24 06:19:00,38.5,36.7,29.46,SE,129,0.0,1.0,93,0.00,,,0.58,Wunderground v.1.15,2013-03-24 10:19:00,
2013-03-24 06:21:00,38.5,36.7,29.46,SE,129,0.0,2.0,93,0.00,,,0.58,Wunderground v.1.15,2013-03-24 10:21:00,
2013-03-24 06:22:00,38.6,36.8,29.46,ESE,107,0.0,3.0,93,0.00,,,0.58,Wunderground v.1.15,2013-03-24 10:22:00,
2013-03-24 06:23:00,38.6,36.8,29.46,ESE,107,1.0,3.0,93,0.00,,,0.58,Wunderground v.1.15,2013-03-24 10:23:00,
2013-03-24 06:24:00,37.5,34.0,29.74,NE,36,2.0,4.0,87,0.08,,,0.18,Wunderground v.1.15,2013-03-24 10:24:00,
2013-03-24 06:25:00,38.5,36.7,29.46,ESE,107,1.0,3.0,93,0.00,,,0.58,Wunderground v.1.15,2013-03-24 10:25:00,
2013-03-24 06:26:00,38.6,36.8,29.46,ESE,107,2.0,3.0,93,0.00,,,0.58,Wunderground v.1.15,2013-03-24 10:26:00,
2013-03-24 06:27:00,38.6,36.8,29.46,ESE,107,2.0,3.0,93,0.00,,,0.58,Wunderground v.1.15,2013-03-24 10:27:00,
2013-03-24 06:29:00,37.4,34.2,29.73,NE,54,2.0,2.0,88,0.08,,,0.18,Wunderground v.1.15,2013-03-24 10:29:00,
2013-03-24 06:30:00,38.6,36.8,29.46,ESE,107,2.0,2.0,93,0.00,,,0.58,Wunderground v.1.15,2013-03-24 10:30:00,
2013-03-24 06:31:00,38.6,36.8,29.46,ESE,115,2.0,2.0,93,0.00,,,0.58,Wunderground v.1.15,2013-03-24 10:31:00,
2013-03-24 06:32:00,38.6,36.8,29.46,ESE,115,2.0,2.0,93,0.00,,,0.58,Wunderground v.1.15,2013-03-24 10:32:00,
2013-03-24 06:33:00,38.6,36.8,29.46,SE,132,1.0,2.0,93,0.00,,,0.58,Wunderground v.1.15,2013-03-24 10:33:00,
2013-03-24 06:34:00,37.3,34.1,29.73,ENE,68,2.0,3.0,88,0.05,,,0.18,Wunderground v.1.15,2013-03-24 10:34:00,
2013-03-24 06:36:00,38.6,36.8,29.46,SE,132,1.0,2.0,93,0.00,,,0.58,Wunderground v.1.15,2013-03-24 10:36:00,
2013-03-24 06:37:00,37.2,34.0,29.73,NE,49,2.0,3.0,88,0.05,,,0.19,Wunderground v.1.15,2013-03-24 10:37:00,
2013-03-24 06:38:00,38.6,36.8,29.46,SE,132,0.0,2.0,93,0.00,,,0.58,Wunderground v.1.15,2013-03-24 10:38:00,
2013-03-24 06:39:00,38.6,36.8,29.46,SE,132,0.0,2.0,93,0.00,,,0.58,Wunderground v.1.15,2013-03-24 10:39:00,
2013-03-24 06:40:00,38.6,36.8,29.46,SE,132,0.0,0.0,93,0.00,,,0.58,Wunderground v.1.15,2013-03-24 10:40:00,
2013-03-24 06:41:00,37.2,34.0,29.73,NE,37,3.0,4.0,88,0.11,,,0.20,Wunderground v.1.15,2013-03-24 10:41:00,
2013-03-24 06:43:00,37.2,34.3,29.73,NE,52,3.0,4.0,89,0.11,,,0.20,Wunderground v.1.15,2013-03-24 10:43:00,
2013-03-24 06:44:00,38.6,36.8,29.46,SE,132,0.0,1.0,93,0.00,,,0.58,Wunderground v.1.15,2013-03-24 10:44:00,
2013-03-24 06:45:00,38.6,36.8,29.46,SE,132,0.0,1.0,93,0.00,,,0.58,Wunderground v.1.15,2013-03-24 10:45:00,
2013-03-24 06:46:00,38.6,36.8,29.46,SE,132,0.0,1.0,93,0.00,,,0.58,Wunderground v.1.15,2013-03-24 10:46:00,
2013-03-24 06:47:00,38.6,36.8,29.46,SE,132,0.0,2.0,93,0.00,,,0.58,Wunderground v.1.15,2013-03-24 10:47:00,
2013-03-24 06:48:00,38.6,36.8,29.46,SE,132,1.0,2.0,93,0.00,,,0.58,Wunderground v.1.15,2013-03-24 10:48:00,
2013-03-24 06:49:00,37.1,34.2,29.74,ENE,76,2.0,4.0,89,0.07,,,0.20,Wunderground v.1.15,2013-03-24 10:49:00,
2013-03-24 06:50:00,38.6,36.8,29.46,SE,132,1.0,1.0,93,0.00,,,0.58,Wunderground v.1.15,2013-03-24 10:50:00,
2013-03-24 06:51:00,38.6,36.8,29.46,SE,132,1.0,1.0,93,0.00,,,0.58,Wunderground v.1.15,2013-03-24 10:51:00,
2013-03-24 06:52:00,38.7,36.9,29.46,SE,132,1.0,1.0,93,0.00,,,0.58,Wunderground v.1.15,2013-03-24 10:52:00,
2013-03-24 06:53:00,38.7,36.9,29.47,SE,132,1.0,1.0,93,0.00,,,0.58,Wunderground v.1.15,2013-03-24 10:53:00,
2013-03-24 06:54:00,37.0,34.1,29.73,East,84,3.0,5.0,89,0.04,,,0.20,Wunderground v.1.15,2013-03-24 10:54:00,
2013-03-24 06:55:00,38.6,36.8,29.47,SE,132,1.0,1.0,93,0.00,,,0.58,Wunderground v.1.15,2013-03-24 10:55:00,
2013-03-24 06:56:00,38.6,36.8,29.47,SE,132,0.0,1.0,93,0.00,,,0.58,Wunderground v.1.15,2013-03-24 10:56:00,
2013-03-24 06:57:00,37.0,34.1,29.73,ENE,71,3.0,4.0,89,0.04,,,0.20,Wunderground v.1.15,2013-03-24 10:57:00,
2013-03-24 06:58:00,38.6,36.8,29.47,SE,132,0.0,2.0,93,0.00,,,0.58,Wunderground v.1.15,2013-03-24 10:58:00,
2013-03-24 06:59:00,37.0,34.1,29.73,East,80,3.0,4.0,89,0.00,,,0.20,Wunderground v.1.15,2013-03-24 10:59:00,
2013-03-24 07:00:00,38.6,36.8,29.47,SE,132,0.0,0.0,93,0.00,,,0.58,Wunderground v.1.15,2013-03-24 11:00:00,
2013-03-24 07:01:00,38.7,36.9,29.47,SE,132,0.0,0.0,93,0.00,,,0.58,Wunderground v.1.15,2013-03-24 11:01:00,
2013-03-24 07:02:00,38.6,36.8,29.47,SE,132,0.0,0.0,93,0.00,,,0.58,Wunderground v.1.15,2013-03-24 11:02:00,
2013-03-24 07:03:00,38.7,36.9,29.47,SE,132,0.0,0.0,93,0.00,,,0.58,Wunderground v.1.15,2013-03-24 11:03:00,
2013-03-24 07:04:00,38.7,36.9,29.47,SE,132,0.0,0.0,93,0.00,,,0.58,Wunderground v.1.15,2013-03-24 11:04:00,
2013-03-24 07:05:00,37.0,34.1,29.73,NE,55,3.0,3.0,89,0.00,,,0.21,Wunderground v.1.15,2013-03-24 11:05:00,
2013-03-24 07:06:00,38.6,36.8,29.47,SE,132,0.0,0.0,93,0.00,,,0.58,Wunderground v.1.15,2013-03-24 11:06:00,
2013-03-24 07:07:00,38.6,36.8,29.48,SE,132,0.0,0.0,93,0.00,,,0.58,Wunderground v.1.15,2013-03-24 11:07:00,
2013-03-24 07:08:00,38.6,36.8,29.48,SE,132,0.0,0.0,93,0.00,,,0.58,Wunderground v.1.15,2013-03-24 11:08:00,
2013-03-24 07:09:00,38.6,36.8,29.48,SE,132,0.0,0.0,93,0.00,,,0.58,Wunderground v.1.15,2013-03-24 11:09:00,
2013-03-24 07:10:00,37.0,34.3,29.73,NE,56,3.0,4.0,90,0.11,,,0.22,Wunderground v.1.15,2013-03-24 11:10:00,
2013-03-24 07:11:00,38.6,36.8,29.48,SE,132,0.0,0.0,93,0.00,,,0.58,Wunderground v.1.15,2013-03-24 11:11:00,
2013-03-24 07:12:00,37.0,34.3,29.74,ENE,57,3.0,4.0,90,0.11,,,0.22,Wunderground v.1.15,2013-03-24 11:12:00,
2013-03-24 07:13:00,37.0,34.3,29.74,NE,56,2.0,4.0,90,0.10,,,0.22,Wunderground v.1.15,2013-03-24 11:13:00,
2013-03-24 07:14:00,38.6,36.8,29.48,SE,132,0.0,0.0,93,0.00,,,0.58,Wunderground v.1.15,2013-03-24 11:14:00,
2013-03-24 07:15:00,38.6,37.0,29.48,SE,132,0.0,0.0,94,0.00,,,0.58,Wunderground v.1.15,2013-03-24 11:15:00,
2013-03-24 07:16:00,36.9,34.2,29.74,North,360,2.0,4.0,90,0.08,,,0.23,Wunderground v.1.15,2013-03-24 11:16:00,
2013-03-24 07:17:00,38.6,37.0,29.48,SE,132,0.0,0.0,94,0.00,,,0.58,Wunderground v.1.15,2013-03-24 11:17:00,
2013-03-24 07:19:00,36.9,34.2,29.74,NNE,19,2.0,4.0,90,0.22,,,0.24,Wunderground v.1.15,2013-03-24 11:19:00,
2013-03-24 07:20:00,38.7,37.1,29.48,SE,132,0.0,0.0,94,0.00,,,0.58,Wunderground v.1.15,2013-03-24 11:20:00,
2013-03-24 07:21:00,36.8,34.1,29.74,NE,38,2.0,5.0,90,0.17,,,0.24,Wunderground v.1.15,2013-03-24 11:21:00,
2013-03-24 07:22:00,36.8,34.1,29.75,NE,36,2.0,5.0,90,0.13,,,0.24,Wunderground v.1.15,2013-03-24 11:22:00,
2013-03-24 07:23:00,38.7,37.1,29.48,SE,132,0.0,2.0,94,0.00,,,0.58,Wunderground v.1.15,2013-03-24 11:23:00,
2013-03-24 07:24:00,38.7,36.9,29.48,SE,132,0.0,2.0,93,0.00,,,0.58,Wunderground v.1.15,2013-03-24 11:24:00,
2013-03-24 07:25:00,38.7,37.1,29.48,SE,132,0.0,2.0,94,0.00,,,0.58,Wunderground v.1.15,2013-03-24 11:25:00,
2013-03-24 07:26:00,38.7,37.1,29.48,SE,132,0.0,2.0,94,0.00,,,0.58,Wunderground v.1.15,2013-03-24 11:26:00,
2013-03-24 07:27:00,38.8,36.9,29.48,SE,138,0.0,2.0,93,0.00,,,0.58,Wunderground v.1.15,2013-03-24 11:27:00,
2013-03-24 07:28:00,36.6,33.9,29.74,NE,50,3.0,3.0,90,0.19,,,0.26,Wunderground v.1.15,2013-03-24 11:28:00,
2013-03-24 07:29:00,38.8,37.2,29.48,SE,138,0.0,2.0,94,0.00,,,0.58,Wunderground v.1.15,2013-03-24 11:29:00,
2013-03-24 07:30:00,38.8,37.2,29.48,SE,138,0.0,0.0,94,0.00,,,0.58,Wunderground v.1.15,2013-03-24 11:30:00,
2013-03-24 07:31:00,36.6,33.9,29.74,North,355,3.0,6.0,90,0.16,,,0.26,Wunderground v.1.15,2013-03-24 11:31:00,
2013-03-24 07:32:00,36.6,33.9,29.74,NE,38,3.0,6.0,90,0.13,,,0.26,Wunderground v.1.15,2013-03-24 11:32:00,
2013-03-24 07:33:00,38.8,37.2,29.48,SE,138,0.0,0.0,94,0.00,,,0.58,Wunderground v.1.15,2013-03-24 11:33:00,
2013-03-24 07:34:00,36.5,33.8,29.74,North,355,3.0,6.0,90,0.08,,,0.26,Wunderground v.1.15,2013-03-24 11:34:00,
2013-03-24 07:35:00,38.8,37.2,29.48,SE,138,0.0,0.0,94,0.00,,,0.58,Wunderground v.1.15,2013-03-24 11:35:00,
2013-03-24 07:36:00,36.5,34.1,29.74,NE,54,3.0,3.0,91,0.08,,,0.27,Wunderground v.1.15,2013-03-24 11:36:00,
2013-03-24 07:38:00,38.8,37.2,29.49,SE,138,0.0,0.0,94,0.00,,,0.58,Wunderground v.1.15,2013-03-24 11:38:00,
2013-03-24 07:39:00,36.4,34.0,29.73,East,90,3.0,6.0,91,0.23,,,0.28,Wunderground v.1.15,2013-03-24 11:39:00,
2013-03-24 07:40:00,38.8,37.2,29.48,SSE,155,0.0,1.0,94,0.00,,,0.58,Wunderground v.1.15,2013-03-24 11:40:00,
2013-03-24 07:41:00,38.9,37.3,29.48,SSE,155,0.0,2.0,94,0.00,,,0.58,Wunderground v.1.15,2013-03-24 11:41:00,
2013-03-24 07:42:00,36.4,34.0,29.71,ENE,78,4.0,7.0,91,0.14,,,0.29,Wunderground v.1.15,2013-03-24 11:42:00,
2013-03-24 07:43:00,38.9,37.3,29.49,South,183,1.0,3.0,94,0.00,,,0.58,Wunderground v.1.15,2013-03-24 11:43:00,
2013-03-24 07:44:00,36.4,34.0,29.71,East,82,5.0,7.0,91,0.35,,,0.30,Wunderground v.1.15,2013-03-24 11:44:00,
2013-03-24 07:45:00,38.9,37.3,29.49,South,183,1.0,3.0,94,0.00,,,0.58,Wunderground v.1.15,2013-03-24 11:45:00,
2013-03-24 07:48:00,36.3,33.9,29.72,NE,53,5.0,5.0,91,0.39,,,0.32,Wunderground v.1.15,2013-03-24 11:48:00,
2013-03-24 07:50:00,36.3,33.9,29.72,ENE,57,5.0,5.0,91,0.38,,,0.32,Wunderground v.1.15,2013-03-24 11:50:00,
2013-03-24 07:51:00,39.0,37.4,29.49,SSW,195,1.0,3.0,94,0.00,,,0.58,Wunderground v.1.15,2013-03-24 11:51:00,
2013-03-24 07:52:00,39.0,37.4,29.49,SSW,210,1.0,3.0,94,0.00,,,0.58,Wunderground v.1.15,2013-03-24 11:52:00,
2013-03-24 07:53:00,39.0,37.4,29.49,SSW,210,1.0,3.0,94,0.00,,,0.58,Wunderground v.1.15,2013-03-24 11:53:00,
2013-03-24 07:57:00,36.2,33.8,29.71,East,80,4.0,6.0,91,0.22,,,0.34,Wunderground v.1.15,2013-03-24 11:57:00,
2013-03-24 07:58:00,36.2,33.8,29.71,ENE,73,4.0,6.0,91,0.18,,,0.34,Wunderground v.1.15,2013-03-24 11:58:00,
2013-03-24 07:59:00,36.1,33.7,29.71,East,79,4.0,6.0,91,0.15,,,0.35,Wunderground v.1.15,2013-03-24 11:59:00,
2013-03-24 08:01:00,39.1,37.5,29.49,SSW,205,1.0,1.0,94,0.00,,,0.58,Wunderground v.1.15,2013-03-24 12:01:00,
2013-03-24 08:03:00,39.1,37.5,29.49,SSW,192,1.0,2.0,94,0.00,,,0.58,Wunderground v.1.15,2013-03-24 12:03:00,
2013-03-24 08:04:00,36.1,33.7,29.71,East,81,5.0,6.0,91,0.13,,,0.36,Wunderground v.1.15,2013-03-24 12:04:00,
2013-03-24 08:05:00,36.1,33.7,29.71,NNE,31,5.0,6.0,91,0.13,,,0.37,Wunderground v.1.15,2013-03-24 12:05:00,
2013-03-24 08:06:00,39.1,37.5,29.49,SSW,198,1.0,2.0,94,0.00,,,0.58,Wunderground v.1.15,2013-03-24 12:06:00,
2013-03-24 08:07:00,39.1,37.5,29.49,SSW,202,2.0,5.0,94,0.00,,,0.58,Wunderground v.1.15,2013-03-24 12:07:00,
2013-03-24 08:08:00,36.1,33.7,29.71,NE,42,5.0,6.0,91,0.13,,,0.37,Wunderground v.1.15,2013-03-24 12:08:00,
2013-03-24 08:10:00,39.2,37.6,29.49,SW,216,2.0,2.0,94,0.00,,,0.58,Wunderground v.1.15,2013-03-24 12:10:00,
2013-03-24 08:13:00,36.1,33.7,29.72,NNE,28,4.0,6.0,91,0.13,,,0.38,Wunderground v.1.15,2013-03-24 12:13:00,
2013-03-24 08:15:00,36.1,33.7,29.72,NE,49,4.0,5.0,91,0.09,,,0.38,Wunderground v.1.15,2013-03-24 12:15:00,
2013-03-24 08:18:00,39.6,38.0,29.49,West,260,3.0,8.0,94,0.00,,,0.58,Wunderground v.1.15,2013-03-24 12:18:00,
2013-03-24 08:19:00,39.6,38.0,29.49,WSW,252,4.0,8.0,94,0.00,,,0.58,Wunderground v.1.15,2013-03-24 12:19:00,
2013-03-24 08:21:00,36.1,33.7,29.72,NE,49,4.0,8.0,91,0.06,,,0.39,Wunderground v.1.15,2013-03-24 12:21:00,
2013-03-24 08:24:00,36.0,33.6,29.72,ENE,61,4.0,8.0,91,0.11,,,0.40,Wunderground v.1.15,2013-03-24 12:24:00,
2013-03-24 08:25:00,39.8,38.2,29.49,West,259,5.0,8.0,94,0.00,,,0.58,Wunderground v.1.15,2013-03-24 12:25:00,
2013-03-24 08:27:00,39.8,38.2,29.49,West,268,5.0,8.0,94,0.00,,,0.58,Wunderground v.1.15,2013-03-24 12:27:00,
2013-03-24 08:28:00,36.0,33.6,29.72,ENE,59,3.0,4.0,91,0.11,,,0.40,Wunderground v.1.15,2013-03-24 12:28:00,
2013-03-24 08:29:00,40.0,38.1,29.49,SW,232,4.0,9.0,93,0.00,,,0.58,Wunderground v.1.15,2013-03-24 12:29:00,
2013-03-24 08:30:00,36.0,33.6,29.72,NE,44,3.0,4.0,91,0.09,,,0.40,Wunderground v.1.15,2013-03-24 12:30:00,
2013-03-24 08:31:00,35.9,33.5,29.72,ENE,57,3.0,4.0,91,0.08,,,0.40,Wunderground v.1.15,2013-03-24 12:31:00,
2013-03-24 08:33:00,35.9,33.5,29.72,East,84,3.0,6.0,91,0.06,,,0.40,Wunderground v.1.15,2013-03-24 12:33:00,
2013-03-24 08:36:00,35.9,33.5,29.71,ENE,65,4.0,4.0,91,0.05,,,0.40,Wunderground v.1.15,2013-03-24 12:36:00,
2013-03-24 08:37:00,35.9,33.5,29.71,ENE,62,4.0,7.0,91,0.04,,,0.40,Wunderground v.1.15,2013-03-24 12:37:00,
2013-03-24 08:39:00,35.8,33.4,29.71,NE,46,4.0,7.0,91,0.04,,,0.40,Wunderground v.1.15,2013-03-24 12:39:00,
2013-03-24 08:40:00,40.1,38.0,29.49,WSW,254,5.0,7.0,92,0.00,,,0.58,Wunderground v.1.15,2013-03-24 12:40:00,
2013-03-24 08:42:00,35.8,33.4,29.71,NE,51,4.0,7.0,91,0.00,,,0.40,Wunderground v.1.15,2013-03-24 12:42:00,
2013-03-24 08:43:00,40.2,37.8,29.50,NNW,338,5.0,7.0,91,0.00,,,0.59,Wunderground v.1.15,2013-03-24 12:43:00,
2013-03-24 08:44:00,40.2,37.8,29.50,SW,221,5.0,7.0,91,0.00,,,0.59,Wunderground v.1.15,2013-03-24 12:44:00,
2013-03-24 08:46:00,35.9,33.5,29.71,NE,52,4.0,4.0,91,0.00,,,0.41,Wunderground v.1.15,2013-03-24 12:46:00,
2013-03-24 08:47:00,40.2,37.8,29.50,WSW,257,6.0,7.0,91,0.00,,,0.59,Wunderground v.1.15,2013-03-24 12:47:00,
2013-03-24 08:48:00,35.9,33.5,29.71,ENE,78,4.0,4.0,91,0.00,,,0.41,Wunderground v.1.15,2013-03-24 12:48:00,
2013-03-24 08:51:00,35.9,33.5,29.71,ENE,67,4.0,5.0,91,0.00,,,0.41,Wunderground v.1.15,2013-03-24 12:51:00,
2013-03-24 08:52:00,36.0,33.6,29.71,ENE,67,4.0,5.0,91,0.00,,,0.41,Wunderground v.1.15,2013-03-24 12:52:00,
2013-03-24 08:53:00,40.1,37.4,29.50,WNW,284,6.0,9.0,90,0.00,,,0.59,Wunderground v.1.15,2013-03-24 12:53:00,
2013-03-24 08:54:00,35.9,33.5,29.71,East,82,4.0,5.0,91,0.00,,,0.41,Wunderground v.1.15,2013-03-24 12:54:00,
2013-03-24 08:55:00,40.1,37.4,29.50,WSW,247,6.0,10.0,90,0.00,,,0.59,Wunderground v.1.15,2013-03-24 12:55:00,
2013-03-24 08:56:00,40.1,37.4,29.50,WNW,283,6.0,10.0,90,0.00,,,0.59,Wunderground v.1.15,2013-03-24 12:56:00,
2013-03-24 08:57:00,40.0,37.3,29.50,West,281,7.0,10.0,90,0.00,,,0.59,Wunderground v.1.15,2013-03-24 12:57:00,
2013-03-24 08:59:00,40.0,37.3,29.50,SW,236,6.0,10.0,90,0.00,,,0.59,Wunderground v.1.15,2013-03-24 12:59:00,
2013-03-24 09:00:00,35.9,33.5,29.71,East,86,4.0,5.0,91,0.00,,,0.41,Wunderground v.1.15,2013-03-24 13:00:00,
2013-03-24 09:01:00,39.8,37.1,29.50,WSW,258,6.0,8.0,90,0.00,,,0.59,Wunderground v.1.15,2013-03-24 13:01:00,
2013-03-24 09:02:00,36.0,33.6,29.71,East,84,3.0,5.0,91,0.00,,,0.41,Wunderground v.1.15,2013-03-24 13:02:00,
2013-03-24 09:03:00,39.8,37.4,29.50,WNW,288,6.0,8.0,91,0.00,,,0.59,Wunderground v.1.15,2013-03-24 13:03:00,
2013-03-24 09:06:00,36.0,33.6,29.71,NE,53,3.0,5.0,91,0.00,,,0.41,Wunderground v.1.15,2013-03-24 13:06:00,
2013-03-24 09:07:00,36.0,33.6,29.71,East,81,3.0,5.0,91,0.00,,,0.41,Wunderground v.1.15,2013-03-24 13:07:00,
2013-03-24 09:08:00,39.6,36.6,29.51,WNW,288,7.0,9.0,89,0.00,,,0.59,Wunderground v.1.15,2013-03-24 13:08:00,
2013-03-24 09:09:00,39.5,36.8,29.50,WNW,286,8.0,9.0,90,0.00,,,0.59,Wunderground v.1.15,2013-03-24 13:09:00,
2013-03-24 09:10:00,39.4,36.7,29.50,West,260,8.0,12.0,90,0.00,,,0.59,Wunderground v.1.15,2013-03-24 13:10:00,
2013-03-24 09:11:00,36.0,33.6,29.70,ENE,77,3.0,5.0,91,0.00,,,0.41,Wunderground v.1.15,2013-03-24 13:11:00,
2013-03-24 09:12:00,36.1,33.7,29.70,NE,38,4.0,6.0,91,0.00,,,0.41,Wunderground v.1.15,2013-03-24 13:12:00,
2013-03-24 09:15:00,36.1,33.7,29.70,East,86,4.0,6.0,91,0.00,,,0.41,Wunderground v.1.15,2013-03-24 13:15:00,
2013-03-24 09:16:00,38.8,36.1,29.51,WSW,243,9.0,17.0,90,0.00,,,0.59,Wunderground v.1.15,2013-03-24 13:16:00,
2013-03-24 09:17:00,38.8,35.8,29.51,WNW,302,9.0,17.0,89,0.00,,,0.59,Wunderground v.1.15,2013-03-24 13:17:00,
2013-03-24 09:18:00,36.2,33.8,29.70,ENE,62,4.0,7.0,91,0.00,,,0.41,Wunderground v.1.15,2013-03-24 13:18:00,
2013-03-24 09:21:00,38.6,35.9,29.52,WSW,246,8.0,9.0,90,0.00,,,0.59,Wunderground v.1.15,2013-03-24 13:21:00,
2013-03-24 09:22:00,36.2,33.8,29.70,ENE,76,4.0,8.0,91,0.00,,,0.41,Wunderground v.1.15,2013-03-24 13:22:00,
2013-03-24 09:23:00,38.4,35.7,29.52,SW,232,8.0,9.0,90,0.00,,,0.59,Wunderground v.1.15,2013-03-24 13:23:00,
2013-03-24 09:24:00,36.2,33.8,29.70,ENE,66,4.0,8.0,91,0.00,,,0.41,Wunderground v.1.15,2013-03-24 13:24:00,
2013-03-24 09:25:00,36.2,33.8,29.69,ENE,59,4.0,4.0,91,0.00,,,0.41,Wunderground v.1.15,2013-03-24 13:25:00,
2013-03-24 09:29:00,36.4,34.0,29.69,ENE,76,4.0,5.0,91,0.00,,,0.41,Wunderground v.1.15,2013-03-24 13:29:00,
2013-03-24 09:30:00,38.1,35.4,29.52,SW,226,7.0,7.0,90,0.00,,,0.59,Wunderground v.1.15,2013-03-24 13:30:00,
2013-03-24 09:31:00,38.0,35.3,29.52,West,259,7.0,9.0,90,0.00,,,0.59,Wunderground v.1.15,2013-03-24 13:31:00,
2013-03-24 09:32:00,38.0,35.3,29.52,WNW,302,7.0,9.0,90,0.00,,,0.59,Wunderground v.1.15,2013-03-24 13:32:00,
2013-03-24 09:34:00,36.3,33.9,29.69,ENE,61,5.0,7.0,91,0.00,,,0.41,Wunderground v.1.15,2013-03-24 13:34:00,
2013-03-24 09:35:00,37.9,35.2,29.52,SW,223,7.0,9.0,90,0.00,,,0.59,Wunderground v.1.15,2013-03-24 13:35:00,
2013-03-24 09:36:00,36.2,33.8,29.68,NE,49,5.0,7.0,91,0.00,,,0.41,Wunderground v.1.15,2013-03-24 13:36:00,
2013-03-24 09:37:00,37.9,35.2,29.52,West,281,7.0,9.0,90,0.00,,,0.59,Wunderground v.1.15,2013-03-24 13:37:00,
2013-03-24 09:39:00,36.2,33.8,29.69,East,84,5.0,8.0,91,0.00,,,0.41,Wunderground v.1.15,2013-03-24 13:39:00,
2013-03-24 09:43:00,37.7,35.0,29.53,WNW,302,6.0,8.0,90,0.00,,,0.59,Wunderground v.1.15,2013-03-24 13:43:00,
2013-03-24 09:44:00,36.2,33.5,29.68,East,92,5.0,8.0,90,0.00,,,0.41,Wunderground v.1.15,2013-03-24 13:44:00,
2013-03-24 09:45:00,36.2,33.5,29.68,East,85,5.0,5.0,90,0.00,,,0.41,Wunderground v.1.15,2013-03-24 13:45:00,
2013-03-24 09:46:00,36.2,33.8,29.68,East,101,5.0,5.0,91,0.00,,,0.41,Wunderground v.1.15,2013-03-24 13:46:00,
2013-03-24 09:47:00,37.6,34.9,29.53,WNW,292,6.0,13.0,90,0.00,,,0.59,Wunderground v.1.15,2013-03-24 13:47:00,
2013-03-24 09:49:00,37.6,34.9,29.52,WSW,257,6.0,13.0,90,0.00,,,0.59,Wunderground v.1.15,2013-03-24 13:49:00,
2013-03-24 09:50:00,36.3,33.9,29.67,East,90,5.0,7.0,91,0.00,,,0.41,Wunderground v.1.15,2013-03-24 13:50:00,
2013-03-24 09:52:00,36.4,34.0,29.68,East,84,5.0,7.0,91,0.00,,,0.41,Wunderground v.1.15,2013-03-24 13:52:00,
2013-03-24 09:53:00,37.4,34.7,29.53,WSW,245,7.0,14.0,90,0.00,,,0.59,Wunderground v.1.15,2013-03-24 13:53:00,
2013-03-24 09:54:00,37.3,34.6,29.53,West,259,7.0,14.0,90,0.00,,,0.59,Wunderground v.1.15,2013-03-24 13:54:00,
2013-03-24 09:55:00,37.3,34.6,29.53,West,277,7.0,14.0,90,0.00,,,0.59,Wunderground v.1.15,2013-03-24 13:55:00,
2013-03-24 09:57:00,37.2,34.5,29.53,SW,231,7.0,14.0,90,0.00,,,0.59,Wunderground v.1.15,2013-03-24 13:57:00,
2013-03-24 09:58:00,36.4,34.0,29.68,East,87,4.0,4.0,91,0.00,,,0.41,Wunderground v.1.15,2013-03-24 13:58:00,
2013-03-24 09:59:00,37.1,34.4,29.53,West,270,8.0,14.0,90,0.00,,,0.59,Wunderground v.1.15,2013-03-24 13:59:00,
2013-03-24 10:00:00,37.1,34.4,29.53,West,271,8.0,8.0,90,0.00,,,0.59,Wunderground v.1.15,2013-03-24 14:00:00,
2013-03-24 10:01:00,36.4,34.0,29.68,ENE,69,4.0,5.0,91,0.00,,,0.41,Wunderground v.1.15,2013-03-24 14:01:00,
2013-03-24 10:02:00,37.0,34.3,29.53,SW,235,8.0,8.0,90,0.00,,,0.59,Wunderground v.1.15,2013-03-24 14:02:00,
2013-03-24 10:03:00,36.4,33.7,29.68,NE,46,4.0,5.0,90,0.00,,,0.41,Wunderground v.1.15,2013-03-24 14:03:00,
2013-03-24 10:04:00,36.4,33.7,29.67,East,85,4.0,5.0,90,0.00,,,0.41,Wunderground v.1.15,2013-03-24 14:04:00,
2013-03-24 10:08:00,36.6,33.7,29.54,West,265,8.0,12.0,89,0.00,,,0.59,Wunderground v.1.15,2013-03-24 14:08:00,
2013-03-24 10:09:00,36.5,33.8,29.67,East,85,4.0,7.0,90,0.00,,,0.41,Wunderground v.1.15,2013-03-24 14:09:00,
2013-03-24 10:12:00,36.2,33.5,29.53,West,265,9.0,9.0,90,0.00,,,0.59,Wunderground v.1.15,2013-03-24 14:12:00,
2013-03-24 10:13:00,36.2,33.5,29.53,West,275,9.0,9.0,90,0.00,,,0.59,Wunderground v.1.15,2013-03-24 14:13:00,
2013-03-24 10:14:00,36.5,33.8,29.67,East,100,4.0,7.0,90,0.00,,,0.41,Wunderground v.1.15,2013-03-24 14:14:00,
2013-03-24 10:15:00,36.1,33.5,29.54,West,269,9.0,10.0,90,0.00,,,0.59,Wunderground v.1.15,2013-03-24 14:15:00,
2013-03-24 10:16:00,36.5,34.1,29.67,East,100,4.0,4.0,91,0.00,,,0.41,Wunderground v.1.15,2013-03-24 14:16:00,
2013-03-24 10:17:00,36.6,33.9,29.67,ESE,106,4.0,4.0,90,0.00,,,0.41,Wunderground v.1.15,2013-03-24 14:17:00,
2013-03-24 10:18:00,35.9,33.3,29.53,West,261,9.0,10.0,90,0.00,,,0.59,Wunderground v.1.15,2013-03-24 14:18:00,
2013-03-24 10:22:00,36.5,33.8,29.66,ENE,74,5.0,6.0,90,0.00,,,0.41,Wunderground v.1.15,2013-03-24 14:22:00,
2013-03-24 10:23:00,36.5,33.8,29.66,East,93,5.0,6.0,90,0.00,,,0.41,Wunderground v.1.15,2013-03-24 14:23:00,
2013-03-24 10:26:00,35.6,33.0,29.54,WNW,284,7.0,10.0,90,0.00,,,0.59,Wunderground v.1.15,2013-03-24 14:26:00,
2013-03-24 10:27:00,35.6,33.0,29.54,West,269,7.0,10.0,90,0.00,,,0.59,Wunderground v.1.15,2013-03-24 14:27:00,
2013-03-24 10:29:00,36.6,34.2,29.66,East,80,4.0,5.0,91,0.00,,,0.41,Wunderground v.1.15,2013-03-24 14:29:00,
2013-03-24 10:31:00,36.6,33.9,29.66,East,90,5.0,7.0,90,0.00,,,0.41,Wunderground v.1.15,2013-03-24 14:31:00,
2013-03-24 10:33:00,35.4,32.8,29.54,WSW,240,7.0,15.0,90,0.00,,,0.59,Wunderground v.1.15,2013-03-24 14:33:00,
2013-03-24 10:35:00,35.4,32.8,29.54,West,261,7.0,15.0,90,0.00,,,0.59,Wunderground v.1.15,2013-03-24 14:35:00,
2013-03-24 10:36:00,36.5,33.8,29.66,East,84,5.0,5.0,90,0.00,,,0.41,Wunderground v.1.15,2013-03-24 14:36:00,
2013-03-24 10:37:00,36.6,33.9,29.67,East,98,4.0,5.0,90,0.00,,,0.41,Wunderground v.1.15,2013-03-24 14:37:00,
2013-03-24 10:38:00,35.5,32.9,29.55,West,273,7.0,15.0,90,0.00,,,0.59,Wunderground v.1.15,2013-03-24 14:38:00,
2013-03-24 10:39:00,36.7,34.0,29.66,East,98,4.0,5.0,90,0.00,,,0.41,Wunderground v.1.15,2013-03-24 14:39:00,
2013-03-24 10:40:00,35.5,32.9,29.55,WNW,290,6.0,6.0,90,0.00,,,0.60,Wunderground v.1.15,2013-03-24 14:40:00,
2013-03-24 10:41:00,35.5,32.9,29.55,West,265,6.0,6.0,90,0.00,,,0.60,Wunderground v.1.15,2013-03-24 14:41:00,
2013-03-24 10:42:00,36.8,34.4,29.67,East,85,2.0,5.0,91,0.00,,,0.41,Wunderground v.1.15,2013-03-24 14:42:00,
2013-03-24 10:43:00,36.8,34.4,29.66,ENE,58,2.0,5.0,91,0.00,,,0.41,Wunderground v.1.15,2013-03-24 14:43:00,
2013-03-24 10:44:00,35.5,32.9,29.55,WSW,257,6.0,7.0,90,0.00,,,0.60,Wunderground v.1.15,2013-03-24 14:44:00,
2013-03-24 10:46:00,35.5,33.1,29.55,WSW,255,6.0,12.0,91,0.00,,,0.60,Wunderground v.1.15,2013-03-24 14:46:00,
2013-03-24 10:48:00,36.7,34.3,29.67,ENE,62,3.0,9.0,91,0.00,,,0.41,Wunderground v.1.15,2013-03-24 14:48:00,
2013-03-24 10:49:00,36.7,34.3,29.67,ENE,62,3.0,9.0,91,0.00,,,0.41,Wunderground v.1.15,2013-03-24 14:49:00,
2013-03-24 10:50:00,35.4,32.8,29.55,South,177,7.0,7.0,90,0.00,,,0.60,Wunderground v.1.15,2013-03-24 14:50:00,
2013-03-24 10:52:00,36.5,33.8,29.67,ENE,63,3.0,9.0,90,0.00,,,0.41,Wunderground v.1.15,2013-03-24 14:52:00,
2013-03-24 10:55:00,36.5,33.8,29.67,NE,56,3.0,9.0,90,0.00,,,0.41,Wunderground v.1.15,2013-03-24 14:55:00,
2013-03-24 10:56:00,36.4,33.7,29.67,East,83,3.0,3.0,90,0.00,,,0.41,Wunderground v.1.15,2013-03-24 14:56:00,
2013-03-24 10:57:00,35.3,32.7,29.55,West,265,8.0,11.0,90,0.00,,,0.60,Wunderground v.1.15,2013-03-24 14:57:00,
2013-03-24 10:58:00,36.4,33.7,29.67,ESE,111,3.0,4.0,90,0.00,,,0.42,Wunderground v.1.15,2013-03-24 14:58:00,
2013-03-24 10:59:00,36.4,33.7,29.67,East,79,3.0,4.0,90,0.00,,,0.42,Wunderground v.1.15,2013-03-24 14:59:00,
2013-03-24 11:00:00,35.3,32.7,29.55,WSW,252,8.0,8.0,90,0.00,,,0.60,Wunderground v.1.15,2013-03-24 15:00:00,
2013-03-24 11:01:00,35.3,32.7,29.55,West,269,8.0,8.0,90,0.00,,,0.60,Wunderground v.1.15,2013-03-24 15:01:00,
2013-03-24 11:02:00,36.4,33.7,29.67,East,96,3.0,4.0,90,0.00,,,0.42,Wunderground v.1.15,2013-03-24 15:02:00,
2013-03-24 11:03:00,36.4,34.0,29.66,ENE,63,3.0,4.0,91,0.00,,,0.42,Wunderground v.1.15,2013-03-24 15:03:00,
2013-03-24 11:04:00,35.2,32.6,29.56,West,269,7.0,9.0,90,0.00,,,0.60,Wunderground v.1.15,2013-03-24 15:04:00,
2013-03-24 11:05:00,36.4,34.0,29.66,East,89,3.0,3.0,91,0.00,,,0.42,Wunderground v.1.15,2013-03-24 15:05:00,
2013-03-24 11:07:00,36.5,34.1,29.66,East,82,3.0,6.0,91,0.00,,,0.42,Wunderground v.1.15,2013-03-24 15:07:00,
2013-03-24 11:08:00,36.5,34.1,29.66,East,87,4.0,6.0,91,0.00,,,0.42,Wunderground v.1.15,2013-03-24 15:08:00,
2013-03-24 11:10:00,35.1,32.5,29.56,SW,214,7.0,7.0,90,0.00,,,0.60,Wunderground v.1.15,2013-03-24 15:10:00,
2013-03-24 11:11:00,35.1,32.5,29.56,SW,229,7.0,7.0,90,0.00,,,0.60,Wunderground v.1.15,2013-03-24 15:11:00,
2013-03-24 11:13:00,36.6,34.2,29.66,East,87,4.0,6.0,91,0.00,,,0.42,Wunderground v.1.15,2013-03-24 15:13:00,
2013-03-24 11:14:00,36.6,34.2,29.66,East,86,4.0,6.0,91,0.00,,,0.42,Wunderground v.1.15,2013-03-24 15:14:00,
2013-03-24 11:15:00,36.6,34.2,29.66,East,82,4.0,4.0,91,0.00,,,0.42,Wunderground v.1.15,2013-03-24 15:15:00,
2013-03-24 11:16:00,35.0,32.4,29.56,South,190,6.0,9.0,90,0.00,,,0.60,Wunderground v.1.15,2013-03-24 15:16:00,
2013-03-24 11:17:00,36.6,34.2,29.66,East,90,4.0,4.0,91,0.00,,,0.42,Wunderground v.1.15,2013-03-24 15:17:00,
2013-03-24 11:19:00,36.5,34.1,29.66,ENE,67,3.0,5.0,91,0.00,,,0.42,Wunderground v.1.15,2013-03-24 15:19:00,
2013-03-24 11:21:00,36.5,34.1,29.65,East,80,4.0,5.0,91,0.00,,,0.42,Wunderground v.1.15,2013-03-24 15:21:00,
2013-03-24 11:22:00,36.5,34.1,29.65,ENE,69,4.0,5.0,91,0.00,,,0.42,Wunderground v.1.15,2013-03-24 15:22:00,
2013-03-24 11:23:00,36.5,34.1,29.65,East,80,4.0,5.0,91,0.00,,,0.42,Wunderground v.1.15,2013-03-24 15:23:00,
2013-03-24 11:25:00,36.6,34.2,29.65,East,86,4.0,5.0,91,0.00,,,0.42,Wunderground v.1.15,2013-03-24 15:25:00,
2013-03-24 11:28:00,36.8,34.4,29.65,East,80,4.0,5.0,91,0.00,,,0.42,Wunderground v.1.15,2013-03-24 15:28:00,
2013-03-24 11:29:00,34.2,31.6,29.56,WSW,237,7.0,11.0,90,0.00,,,0.60,Wunderground v.1.15,2013-03-24 15:29:00,
2013-03-24 11:30:00,36.8,34.7,29.65,East,82,4.0,5.0,92,0.00,,,0.42,Wunderground v.1.15,2013-03-24 15:30:00,
2013-03-24 11:31:00,36.9,34.8,29.65,East,82,4.0,5.0,92,0.00,,,0.42,Wunderground v.1.15,2013-03-24 15:31:00,
2013-03-24 11:34:00,36.9,34.5,29.65,ENE,74,4.0,5.0,91,0.00,,,0.42,Wunderground v.1.15,2013-03-24 15:34:00,
2013-03-24 11:35:00,36.8,34.4,29.65,ENE,74,3.0,3.0,91,0.00,,,0.42,Wunderground v.1.15,2013-03-24 15:35:00,
2013-03-24 11:38:00,36.8,34.4,29.65,ENE,71,3.0,5.0,91,0.00,,,0.42,Wunderground v.1.15,2013-03-24 15:38:00,
2013-03-24 11:40:00,36.9,34.8,29.64,ENE,71,3.0,6.0,92,0.00,,,0.42,Wunderground v.1.15,2013-03-24 15:40:00,
2013-03-24 11:41:00,36.8,34.7,29.64,ENE,78,4.0,6.0,92,0.00,,,0.42,Wunderground v.1.15,2013-03-24 15:41:00,
2013-03-24 11:42:00,33.9,31.6,29.56,West,275,6.0,7.0,91,0.00,,,0.60,Wunderground v.1.15,2013-03-24 15:42:00,
2013-03-24 11:44:00,36.7,34.3,29.64,East,83,4.0,6.0,91,0.00,,,0.42,Wunderground v.1.15,2013-03-24 15:44:00,
2013-03-24 11:45:00,36.7,34.3,29.64,ENE,72,4.0,4.0,91,0.00,,,0.42,Wunderground v.1.15,2013-03-24 15:45:00,
2013-03-24 11:48:00,36.8,34.7,29.64,East,89,4.0,6.0,92,0.00,,,0.42,Wunderground v.1.15,2013-03-24 15:48:00,
2013-03-24 11:49:00,33.9,31.6,29.56,SW,217,6.0,13.0,91,0.00,,,0.60,Wunderground v.1.15,2013-03-24 15:49:00,
2013-03-24 11:51:00,36.8,34.7,29.64,ENE,68,3.0,6.0,92,0.00,,,0.42,Wunderground v.1.15,2013-03-24 15:51:00,
2013-03-24 11:52:00,36.8,34.7,29.64,ENE,74,3.0,6.0,92,0.00,,,0.42,Wunderground v.1.15,2013-03-24 15:52:00,
2013-03-24 11:54:00,36.8,34.4,29.63,East,88,4.0,6.0,91,0.00,,,0.42,Wunderground v.1.15,2013-03-24 15:54:00,
2013-03-24 11:56:00,36.8,34.4,29.63,East,86,4.0,5.0,91,0.00,,,0.42,Wunderground v.1.15,2013-03-24 15:56:00,
2013-03-24 11:57:00,33.9,31.6,29.56,WSW,241,7.0,12.0,91,0.00,,,0.60,Wunderground v.1.15,2013-03-24 15:57:00,
2013-03-24 11:59:00,37.0,34.9,29.63,East,86,4.0,5.0,92,0.00,,,0.42,Wunderground v.1.15,2013-03-24 15:59:00,
2013-03-24 12:00:00,37.0,34.9,29.63,East,91,4.0,5.0,92,0.00,,,0.42,Wunderground v.1.15,2013-03-24 16:00:00,
2013-03-24 12:03:00,37.0,34.6,29.63,NE,55,4.0,5.0,91,0.00,,,0.42,Wunderground v.1.15,2013-03-24 16:03:00,
2013-03-24 12:04:00,37.0,34.6,29.63,East,92,3.0,5.0,91,0.00,,,0.42,Wunderground v.1.15,2013-03-24 16:04:00,
2013-03-24 12:05:00,33.9,31.6,29.56,WSW,238,6.0,9.0,91,0.00,,,0.00,Wunderground v.1.15,2013-03-24 16:05:00,
2013-03-24 12:06:00,37.0,34.6,29.63,East,79,4.0,6.0,91,0.00,,,0.42,Wunderground v.1.15,2013-03-24 16:06:00,
2013-03-24 12:07:00,33.9,31.3,29.56,WSW,246,6.0,9.0,90,0.00,,,0.00,Wunderground v.1.15,2013-03-24 16:07:00,
2013-03-24 12:08:00,37.1,34.7,29.63,East,93,4.0,6.0,91,0.00,,,0.42,Wunderground v.1.15,2013-03-24 16:08:00,
2013-03-24 12:09:00,33.9,31.3,29.56,WNW,283,6.0,9.0,90,0.00,,,0.00,Wunderground v.1.15,2013-03-24 16:09:00,
2013-03-24 12:10:00,37.1,34.7,29.63,ENE,63,3.0,6.0,91,0.00,,,0.42,Wunderground v.1.15,2013-03-24 16:10:00,
2013-03-24 12:11:00,33.9,31.6,29.56,SW,220,7.0,7.0,91,0.00,,,0.00,Wunderground v.1.15,2013-03-24 16:11:00,
2013-03-24 12:12:00,33.9,31.6,29.56,WSW,239,6.0,7.0,91,0.00,,,0.00,Wunderground v.1.15,2013-03-24 16:12:00,
2013-03-24 12:13:00,37.1,34.7,29.63,East,86,3.0,6.0,91,0.00,,,0.42,Wunderground v.1.15,2013-03-24 16:13:00,
2013-03-24 12:14:00,33.9,31.6,29.56,SW,217,6.0,7.0,91,0.00,,,0.00,Wunderground v.1.15,2013-03-24 16:14:00,
2013-03-24 12:15:00,37.2,34.8,29.62,ENE,77,3.0,5.0,91,0.00,,,0.42,Wunderground v.1.15,2013-03-24 16:15:00,
2013-03-24 12:16:00,33.8,31.5,29.56,West,268,5.0,8.0,91,0.00,,,0.00,Wunderground v.1.15,2013-03-24 16:16:00,
2013-03-24 12:17:00,33.8,31.5,29.57,WSW,246,5.0,8.0,91,0.00,,,0.00,Wunderground v.1.15,2013-03-24 16:17:00,
2013-03-24 12:18:00,33.7,31.4,29.57,WSW,241,5.0,8.0,91,0.00,,,0.00,Wunderground v.1.15,2013-03-24 16:18:00,
2013-03-24 12:19:00,37.3,34.9,29.61,ENE,72,3.0,5.0,91,0.00,,,0.42,Wunderground v.1.15,2013-03-24 16:19:00,
2013-03-24 12:20:00,37.3,35.2,29.61,East,91,3.0,6.0,92,0.00,,,0.42,Wunderground v.1.15,2013-03-24 16:20:00,
2013-03-24 12:21:00,37.3,35.2,29.61,East,97,4.0,6.0,92,0.00,,,0.42,Wunderground v.1.15,2013-03-24 16:21:00,
2013-03-24 12:22:00,33.7,31.1,29.57,West,259,6.0,6.0,90,0.00,,,0.00,Wunderground v.1.15,2013-03-24 16:22:00,
2013-03-24 12:23:00,33.7,31.1,29.57,WSW,256,6.0,6.0,90,0.00,,,0.00,Wunderground v.1.15,2013-03-24 16:23:00,
2013-03-24 12:24:00,33.7,31.1,29.57,WSW,252,6.0,7.0,90,0.00,,,0.00,Wunderground v.1.15,2013-03-24 16:24:00,
2013-03-24 12:25:00,33.7,31.1,29.57,WSW,240,6.0,7.0,90,0.00,,,0.00,Wunderground v.1.15,2013-03-24 16:25:00,
2013-03-24 12:26:00,37.4,35.3,29.60,East,88,4.0,5.0,92,0.00,,,0.42,Wunderground v.1.15,2013-03-24 16:26:00,
2013-03-24 12:27:00,37.4,35.3,29.60,East,81,4.0,5.0,92,0.00,,,0.42,Wunderground v.1.15,2013-03-24 16:27:00,
2013-03-24 12:28:00,33.6,31.0,29.57,SW,227,7.0,13.0,90,0.00,,,0.00,Wunderground v.1.15,2013-03-24 16:28:00,
2013-03-24 12:29:00,33.6,31.0,29.57,West,264,6.0,13.0,90,0.00,,,0.00,Wunderground v.1.15,2013-03-24 16:29:00,
2013-03-24 12:30:00,33.6,31.0,29.57,WSW,251,6.0,6.0,90,0.00,,,0.00,Wunderground v.1.15,2013-03-24 16:30:00,
2013-03-24 12:31:00,37.5,35.1,29.58,ENE,78,5.0,8.0,91,0.00,,,0.42,Wunderground v.1.15,2013-03-24 16:31:00,
2013-03-24 12:32:00,33.5,31.2,29.57,SSW,209,7.0,10.0,91,0.00,,,0.00,Wunderground v.1.15,2013-03-24 16:32:00,
2013-03-24 12:33:00,37.5,35.1,29.58,East,85,5.0,8.0,91,0.00,,,0.42,Wunderground v.1.15,2013-03-24 16:33:00,
2013-03-24 12:34:00,37.7,35.6,29.58,NNE,30,5.0,8.0,92,0.00,,,0.42,Wunderground v.1.15,2013-03-24 16:34:00,
2013-03-24 12:35:00,33.5,30.9,29.57,SW,214,7.0,10.0,90,0.00,,,0.00,Wunderground v.1.15,2013-03-24 16:35:00,
2013-03-24 12:36:00,33.5,30.9,29.56,WNW,294,7.0,10.0,90,0.00,,,0.00,Wunderground v.1.15,2013-03-24 16:36:00,
2013-03-24 12:37:00,37.7,35.3,29.58,ENE,61,6.0,9.0,91,0.00,,,0.42,Wunderground v.1.15,2013-03-24 16:37:00,
2013-03-24 12:38:00,37.6,35.2,29.58,East,98,6.0,9.0,91,0.00,,,0.42,Wunderground v.1.15,2013-03-24 16:38:00,
2013-03-24 12:39:00,33.5,30.9,29.57,WSW,242,5.0,10.0,90,0.00,,,0.00,Wunderground v.1.15,2013-03-24 16:39:00,
2013-03-24 12:40:00,33.5,30.9,29.57,SW,232,5.0,6.0,90,0.00,,,0.00,Wunderground v.1.15,2013-03-24 16:40:00,
2013-03-24 12:41:00,37.7,35.3,29.57,East,99,6.0,9.0,91,0.00,,,0.42,Wunderground v.1.15,2013-03-24 16:41:00,
2013-03-24 12:42:00,33.4,31.1,29.57,WSW,246,5.0,8.0,91,0.00,,,0.00,Wunderground v.1.15,2013-03-24 16:42:00,
2013-03-24 12:43:00,33.4,31.1,29.57,WSW,238,5.0,8.0,91,0.00,,,0.00,Wunderground v.1.15,2013-03-24 16:43:00,
2013-03-24 12:44:00,37.6,35.2,29.57,ESE,111,6.0,9.0,91,0.00,,,0.42,Wunderground v.1.15,2013-03-24 16:44:00,
2013-03-24 12:45:00,37.6,35.2,29.57,East,97,6.0,6.0,91,0.00,,,0.42,Wunderground v.1.15,2013-03-24 16:45:00,
2013-03-24 12:46:00,33.4,31.1,29.57,SSW,201,5.0,10.0,91,0.00,,,0.00,Wunderground v.1.15,2013-03-24 16:46:00,
2013-03-24 12:47:00,37.6,35.2,29.57,East,86,6.0,8.0,91,0.00,,,0.42,Wunderground v.1.15,2013-03-24 16:47:00,
2013-03-24 12:48:00,37.6,35.2,29.56,SE,136,6.0,8.0,91,0.00,,,0.42,Wunderground v.1.15,2013-03-24 16:48:00,
2013-03-24 12:49:00,33.4,31.1,29.57,SW,221,6.0,10.0,91,0.00,,,0.00,Wunderground v.1.15,2013-03-24 16:49:00,
2013-03-24 12:50:00,33.4,31.1,29.57,WSW,252,6.0,8.0,91,0.00,,,0.00,Wunderground v.1.15,2013-03-24 16:50:00,
2013-03-24 12:51:00,37.6,35.2,29.56,East,95,5.0,8.0,91,0.00,,,0.42,Wunderground v.1.15,2013-03-24 16:51:00,
2013-03-24 12:52:00,37.6,35.2,29.56,ENE,76,5.0,8.0,91,0.00,,,0.42,Wunderground v.1.15,2013-03-24 16:52:00,
2013-03-24 12:53:00,33.4,31.1,29.57,WSW,241,6.0,8.0,91,0.00,,,0.00,Wunderground v.1.15,2013-03-24 16:53:00,
2013-03-24 12:54:00,37.6,34.9,29.55,NE,38,5.0,8.0,90,0.00,,,0.42,Wunderground v.1.15,2013-03-24 16:54:00,
2013-03-24 12:55:00,33.4,30.8,29.57,WNW,285,6.0,8.0,90,0.00,,,0.00,Wunderground v.1.15,2013-03-24 16:55:00,
2013-03-24 12:56:00,33.4,30.8,29.56,SW,225,6.0,8.0,90,0.00,,,0.00,Wunderground v.1.15,2013-03-24 16:56:00,
2013-03-24 12:57:00,33.4,30.8,29.56,SSW,202,6.0,8.0,90,0.00,,,0.00,Wunderground v.1.15,2013-03-24 16:57:00,
2013-03-24 12:58:00,37.5,34.8,29.54,East,80,6.0,7.0,90,0.00,,,0.42,Wunderground v.1.15,2013-03-24 16:58:00,
2013-03-24 12:59:00,37.5,34.8,29.54,East,90,6.0,7.0,90,0.00,,,0.42,Wunderground v.1.15,2013-03-24 16:59:00,
2013-03-24 13:00:00,37.5,35.1,29.53,ENE,77,6.0,7.0,91,0.00,,,0.42,Wunderground v.1.15,2013-03-24 17:00:00,
2013-03-24 13:01:00,33.4,30.8,29.57,WSW,249,6.0,11.0,90,0.00,,,0.00,Wunderground v.1.15,2013-03-24 17:01:00,
2013-03-24 13:02:00,33.5,30.9,29.57,WSW,254,6.0,11.0,90,0.00,,,0.00,Wunderground v.1.15,2013-03-24 17:02:00,
2013-03-24 13:03:00,33.4,30.8,29.57,WSW,254,6.0,11.0,90,0.00,,,0.00,Wunderground v.1.15,2013-03-24 17:03:00,
2013-03-24 13:04:00,33.4,30.8,29.56,WSW,238,6.0,11.0,90,0.00,,,0.00,Wunderground v.1.15,2013-03-24 17:04:00,
2013-03-24 13:05:00,37.6,34.9,29.52,East,83,6.0,11.0,90,0.00,,,0.42,Wunderground v.1.15,2013-03-24 17:05:00,
2013-03-24 13:06:00,37.6,34.9,29.51,NE,42,7.0,11.0,90,0.00,,,0.42,Wunderground v.1.15,2013-03-24 17:06:00,
2013-03-24 13:07:00,37.5,34.8,29.51,East,92,7.0,11.0,90,0.00,,,0.42,Wunderground v.1.15,2013-03-24 17:07:00,
2013-03-24 13:09:00,33.4,30.8,29.56,West,280,7.0,11.0,90,0.00,,,0.00,Wunderground v.1.15,2013-03-24 17:09:00,
2013-03-24 13:11:00,33.4,30.8,29.57,WSW,258,7.0,7.0,90,0.00,,,0.00,Wunderground v.1.15,2013-03-24 17:11:00,
2013-03-24 13:12:00,37.5,34.8,29.51,NE,50,7.0,11.0,90,0.00,,,0.42,Wunderground v.1.15,2013-03-24 17:12:00,
2013-03-24 13:13:00,37.5,35.1,29.51,ENE,63,6.0,11.0,91,0.00,,,0.42,Wunderground v.1.15,2013-03-24 17:13:00,
2013-03-24 13:15:00,37.6,35.2,29.52,ESE,105,5.0,5.0,91,0.00,,,0.42,Wunderground v.1.15,2013-03-24 17:15:00,
2013-03-24 13:16:00,37.6,35.2,29.52,NNE,26,5.0,6.0,91,0.00,,,0.42,Wunderground v.1.15,2013-03-24 17:16:00,
2013-03-24 13:17:00,33.3,30.7,29.57,South,190,6.0,12.0,90,0.00,,,0.00,Wunderground v.1.15,2013-03-24 17:17:00,
2013-03-24 13:18:00,33.3,30.7,29.57,WSW,246,6.0,12.0,90,0.00,,,0.00,Wunderground v.1.15,2013-03-24 17:18:00,
2013-03-24 13:19:00,37.6,35.2,29.52,ENE,57,4.0,6.0,91,0.00,,,0.42,Wunderground v.1.15,2013-03-24 17:19:00,
2013-03-24 13:20:00,37.5,35.1,29.51,ENE,75,4.0,7.0,91,0.00,,,0.42,Wunderground v.1.15,2013-03-24 17:20:00,
2013-03-24 13:22:00,33.2,30.9,29.57,SW,214,6.0,9.0,91,0.00,,,0.00,Wunderground v.1.15,2013-03-24 17:22:00,
2013-03-24 13:25:00,37.6,35.2,29.50,East,101,5.0,8.0,91,0.00,,,0.42,Wunderground v.1.15,2013-03-24 17:25:00,
2013-03-24 13:27:00,37.7,35.3,29.50,ESE,105,5.0,8.0,91,0.00,,,0.42,Wunderground v.1.15,2013-03-24 17:27:00,
2013-03-24 13:28:00,33.0,30.7,29.57,SW,231,6.0,9.0,91,0.00,,,0.00,Wunderground v.1.15,2013-03-24 17:28:00,
2013-03-24 13:29:00,33.0,30.7,29.57,SSW,212,6.0,9.0,91,0.00,,,0.00,Wunderground v.1.15,2013-03-24 17:29:00,
2013-03-24 13:30:00,37.8,35.4,29.49,ENE,65,5.0,8.0,91,0.00,,,0.42,Wunderground v.1.15,2013-03-24 17:30:00,
2013-03-24 13:31:00,37.7,35.0,29.50,ENE,75,5.0,11.0,90,0.00,,,0.42,Wunderground v.1.15,2013-03-24 17:31:00,
2013-03-24 13:32:00,33.0,30.7,29.57,WSW,253,6.0,6.0,91,0.00,,,0.00,Wunderground v.1.15,2013-03-24 17:32:00,
2013-03-24 13:34:00,32.9,30.6,29.57,SSW,209,6.0,6.0,91,0.00,,,0.00,Wunderground v.1.15,2013-03-24 17:34:00,
2013-03-24 13:35:00,37.8,35.1,29.49,East,82,6.0,6.0,90,0.00,,,0.42,Wunderground v.1.15,2013-03-24 17:35:00,
2013-03-24 13:37:00,37.8,35.1,29.48,East,96,6.0,6.0,90,0.00,,,0.42,Wunderground v.1.15,2013-03-24 17:37:00,
2013-03-24 13:41:00,37.9,35.2,29.48,East,79,6.0,7.0,90,0.00,,,0.42,Wunderground v.1.15,2013-03-24 17:41:00,
2013-03-24 13:42:00,32.8,30.7,29.57,West,263,5.0,5.0,92,0.00,,,0.00,Wunderground v.1.15,2013-03-24 17:42:00,
2013-03-24 13:43:00,37.9,35.2,29.47,ENE,62,5.0,7.0,90,0.00,,,0.42,Wunderground v.1.15,2013-03-24 17:43:00,
2013-03-24 13:47:00,37.8,35.1,29.49,East,82,5.0,5.0,90,0.00,,,0.42,Wunderground v.1.15,2013-03-24 17:47:00,
2013-03-24 13:49:00,37.8,35.1,29.50,ENE,58,5.0,5.0,90,0.00,,,0.42,Wunderground v.1.15,2013-03-24 17:49:00,
2013-03-24 13:50:00,37.9,35.2,29.51,East,91,5.0,5.0,90,0.00,,,0.42,Wunderground v.1.15,2013-03-24 17:50:00,
2013-03-24 13:53:00,37.9,35.2,29.52,East,88,5.0,8.0,90,0.00,,,0.42,Wunderground v.1.15,2013-03-24 17:53:00,
2013-03-24 13:55:00,38.0,35.3,29.53,East,87,4.0,5.0,90,0.00,,,0.42,Wunderground v.1.15,2013-03-24 17:55:00,
2013-03-24 13:56:00,32.6,30.5,29.58,SW,218,5.0,8.0,92,0.00,,,0.00,Wunderground v.1.15,2013-03-24 17:56:00,
2013-03-24 13:58:00,38.0,35.3,29.52,East,99,4.0,5.0,90,0.00,,,0.42,Wunderground v.1.15,2013-03-24 17:58:00,
2013-03-24 14:00:00,38.0,35.3,29.52,NE,40,4.0,5.0,90,0.00,,,0.42,Wunderground v.1.15,2013-03-24 18:00:00,
2013-03-24 14:01:00,38.0,35.3,29.51,NE,44,4.0,5.0,90,0.00,,,0.42,Wunderground v.1.15,2013-03-24 18:01:00,
2013-03-24 14:04:00,38.0,35.3,29.52,East,96,4.0,5.0,90,0.00,,,0.42,Wunderground v.1.15,2013-03-24 18:04:00,
2013-03-24 14:05:00,38.0,35.3,29.53,ESE,120,4.0,4.0,90,0.00,,,0.42,Wunderground v.1.15,2013-03-24 18:05:00,
2013-03-24 14:06:00,38.1,35.4,29.53,ESE,120,3.0,4.0,90,0.00,,,0.42,Wunderground v.1.15,2013-03-24 18:06:00,
2013-03-24 14:07:00,32.6,30.8,29.58,West,267,3.0,8.0,93,0.00,,,0.00,Wunderground v.1.15,2013-03-24 18:07:00,
2013-03-24 14:10:00,38.2,35.5,29.53,ESE,113,3.0,5.0,90,0.00,,,0.42,Wunderground v.1.15,2013-03-24 18:10:00,
2013-03-24 14:11:00,38.2,35.5,29.53,ESE,113,3.0,5.0,90,0.00,,,0.42,Wunderground v.1.15,2013-03-24 18:11:00,
2013-03-24 14:16:00,38.2,35.5,29.53,ENE,61,2.0,3.0,90,0.00,,,0.42,Wunderground v.1.15,2013-03-24 18:16:00,
2013-03-24 14:17:00,38.2,35.2,29.53,ESE,112,3.0,3.0,89,0.00,,,0.42,Wunderground v.1.15,2013-03-24 18:17:00,
2013-03-24 14:18:00,32.5,30.7,29.58,SW,225,4.0,5.0,93,0.00,,,0.00,Wunderground v.1.15,2013-03-24 18:18:00,
2013-03-24 14:21:00,32.5,30.7,29.59,West,263,4.0,6.0,93,0.00,,,0.00,Wunderground v.1.15,2013-03-24 18:21:00,
2013-03-24 14:22:00,38.2,35.5,29.53,East,98,2.0,4.0,90,0.00,,,0.42,Wunderground v.1.15,2013-03-24 18:22:00,
2013-03-24 14:23:00,32.5,30.7,29.59,WSW,257,4.0,6.0,93,0.00,,,0.00,Wunderground v.1.15,2013-03-24 18:23:00,
2013-03-24 14:24:00,38.3,35.6,29.53,East,89,3.0,7.0,90,0.00,,,0.42,Wunderground v.1.15,2013-03-24 18:24:00,
2013-03-24 14:26:00,38.3,35.6,29.53,SSE,148,3.0,3.0,90,0.00,,,0.42,Wunderground v.1.15,2013-03-24 18:26:00,
2013-03-24 14:27:00,32.5,30.7,29.59,WNW,282,5.0,6.0,93,0.00,,,0.00,Wunderground v.1.15,2013-03-24 18:27:00,
2013-03-24 14:29:00,38.3,35.6,29.54,East,98,4.0,5.0,90,0.00,,,0.42,Wunderground v.1.15,2013-03-24 18:29:00,
2013-03-24 14:30:00,32.5,30.7,29.59,SW,221,5.0,5.0,93,0.00,,,0.00,Wunderground v.1.15,2013-03-24 18:30:00,
2013-03-24 14:31:00,38.2,35.2,29.54,East,86,4.0,5.0,89,0.00,,,0.42,Wunderground v.1.15,2013-03-24 18:31:00,
2013-03-24 14:34:00,38.2,35.2,29.54,ESE,117,3.0,5.0,89,0.00,,,0.42,Wunderground v.1.15,2013-03-24 18:34:00,
2013-03-24 14:37:00,38.2,35.5,29.53,ESE,117,2.0,2.0,90,0.00,,,0.42,Wunderground v.1.15,2013-03-24 18:37:00,
2013-03-24 14:41:00,38.2,35.5,29.53,ESE,103,1.0,3.0,90,0.00,,,0.42,Wunderground v.1.15,2013-03-24 18:41:00,
2013-03-24 14:44:00,38.2,35.5,29.53,ENE,73,1.0,4.0,90,0.00,,,0.42,Wunderground v.1.15,2013-03-24 18:44:00,
2013-03-24 14:49:00,38.2,35.5,29.54,SSE,154,1.0,2.0,90,0.00,,,0.42,Wunderground v.1.15,2013-03-24 18:49:00,
2013-03-24 14:51:00,38.2,35.5,29.54,SSE,154,1.0,2.0,90,0.00,,,0.42,Wunderground v.1.15,2013-03-24 18:51:00,
2013-03-24 14:54:00,32.3,30.5,29.61,NNW,338,5.0,7.0,93,0.00,,,0.00,Wunderground v.1.15,2013-03-24 18:54:00,
2013-03-24 14:55:00,32.3,30.5,29.61,WSW,240,5.0,8.0,93,0.00,,,0.00,Wunderground v.1.15,2013-03-24 18:55:00,
2013-03-24 14:56:00,38.1,35.4,29.54,ESE,123,1.0,1.0,90,0.00,,,0.42,Wunderground v.1.15,2013-03-24 18:56:00,
2013-03-24 14:58:00,38.1,35.4,29.54,ESE,123,0.0,1.0,90,0.00,,,0.42,Wunderground v.1.15,2013-03-24 18:58:00,
2013-03-24 14:59:00,32.3,30.5,29.61,West,264,5.0,8.0,93,0.00,,,0.00,Wunderground v.1.15,2013-03-24 18:59:00,
2013-03-24 15:00:00,32.3,30.5,29.61,NW,319,6.0,6.0,93,0.00,,,0.00,Wunderground v.1.15,2013-03-24 19:00:00,
2013-03-24 15:02:00,38.1,35.4,29.54,ESE,123,0.0,1.0,90,0.00,,,0.42,Wunderground v.1.15,2013-03-24 19:02:00,
2013-03-24 15:08:00,38.1,35.7,29.53,ESE,123,1.0,2.0,91,0.00,,,0.43,Wunderground v.1.15,2013-03-24 19:08:00,
2013-03-24 15:09:00,38.1,35.7,29.52,ESE,123,1.0,2.0,91,0.00,,,0.43,Wunderground v.1.15,2013-03-24 19:09:00,
2013-03-24 15:11:00,32.1,30.0,29.61,WSW,252,7.0,8.0,92,0.00,,,0.00,Wunderground v.1.15,2013-03-24 19:11:00,
2013-03-24 15:12:00,32.0,29.9,29.61,West,265,7.0,11.0,92,0.00,,,0.00,Wunderground v.1.15,2013-03-24 19:12:00,
2013-03-24 15:17:00,37.8,35.4,29.51,ESE,123,1.0,1.0,91,0.08,,,0.44,Wunderground v.1.15,2013-03-24 19:17:00,
2013-03-24 15:20:00,32.1,29.8,29.62,WNW,290,7.0,7.0,91,0.00,,,0.00,Wunderground v.1.15,2013-03-24 19:20:00,
2013-03-24 15:24:00,37.8,35.4,29.51,ESE,117,1.0,2.0,91,0.06,,,0.44,Wunderground v.1.15,2013-03-24 19:24:00,
2013-03-24 15:31:00,32.1,29.5,29.63,WNW,287,8.0,10.0,90,0.00,,,0.00,Wunderground v.1.15,2013-03-24 19:31:00,
2013-03-24 15:33:00,32.1,29.5,29.63,WNW,286,9.0,13.0,90,0.00,,,0.00,Wunderground v.1.15,2013-03-24 19:33:00,
2013-03-24 15:38:00,32.1,29.5,29.63,West,264,8.0,13.0,90,0.00,,,0.00,Wunderground v.1.15,2013-03-24 19:38:00,
2013-03-24 15:39:00,37.6,35.5,29.47,ENE,69,3.0,4.0,92,0.00,,,0.45,Wunderground v.1.15,2013-03-24 19:39:00,
2013-03-24 15:40:00,32.1,29.5,29.63,NW,304,7.0,8.0,90,0.00,,,0.00,Wunderground v.1.15,2013-03-24 19:40:00,
2013-03-24 15:44:00,32.1,29.5,29.63,WNW,284,8.0,11.0,90,0.00,,,0.00,Wunderground v.1.15,2013-03-24 19:44:00,
2013-03-24 15:57:00,32.0,28.8,29.64,West,281,9.0,10.0,88,0.00,,,0.00,Wunderground v.1.15,2013-03-24 19:57:00,
2013-03-24 16:03:00,37.7,35.6,29.50,East,85,0.0,1.0,92,0.11,,,0.47,Wunderground v.1.15,2013-03-24 20:03:00,
2013-03-24 16:05:00,32.1,28.9,29.64,WSW,246,8.0,9.0,88,0.00,,,0.00,Wunderground v.1.15,2013-03-24 20:05:00,
2013-03-24 16:11:00,37.7,35.9,29.49,East,84,2.0,3.0,93,0.07,,,0.48,Wunderground v.1.15,2013-03-24 20:11:00,
2013-03-24 16:12:00,31.9,29.0,29.65,WNW,294,5.0,11.0,89,0.00,,,0.00,Wunderground v.1.15,2013-03-24 20:12:00,
2013-03-24 16:17:00,37.7,35.9,29.49,NW,309,2.0,2.0,93,0.24,,,0.50,Wunderground v.1.15,2013-03-24 20:17:00,
2013-03-24 16:19:00,31.9,28.8,29.64,WSW,241,6.0,15.0,88,0.00,,,0.00,Wunderground v.1.15,2013-03-24 20:19:00,
2013-03-24 16:21:00,31.9,28.8,29.65,West,280,7.0,7.0,88,0.00,,,0.00,Wunderground v.1.15,2013-03-24 20:21:00,
2013-03-24 16:27:00,32.0,28.6,29.65,WNW,290,8.0,13.0,87,0.00,,,0.00,Wunderground v.1.15,2013-03-24 20:27:00,
2013-03-24 16:29:00,37.9,36.1,29.46,East,86,3.0,5.0,93,0.09,,,0.53,Wunderground v.1.15,2013-03-24 20:29:00,
2013-03-24 16:33:00,32.0,28.6,29.65,NW,306,8.0,8.0,87,0.00,,,0.00,Wunderground v.1.15,2013-03-24 20:33:00,
2013-03-24 16:34:00,32.0,28.6,29.65,SW,236,8.0,8.0,87,0.00,,,0.00,Wunderground v.1.15,2013-03-24 20:34:00,
2013-03-24 16:35:00,32.0,28.6,29.65,West,276,8.0,8.0,87,0.00,,,0.00,Wunderground v.1.15,2013-03-24 20:35:00,
2013-03-24 16:36:00,31.9,28.5,29.65,WSW,256,8.0,8.0,87,0.00,,,0.00,Wunderground v.1.15,2013-03-24 20:36:00,
2013-03-24 16:37:00,38.1,36.3,29.49,SSE,148,2.0,3.0,93,0.09,,,0.54,Wunderground v.1.15,2013-03-24 20:37:00,
2013-03-24 16:41:00,32.0,28.6,29.65,West,279,8.0,9.0,87,0.00,,,0.00,Wunderground v.1.15,2013-03-24 20:41:00,
2013-03-24 16:43:00,38.1,36.3,29.47,East,81,1.0,3.0,93,0.06,,,0.54,Wunderground v.1.15,2013-03-24 20:43:00,
2013-03-24 16:47:00,38.1,36.3,29.47,East,95,1.0,2.0,93,0.05,,,0.55,Wunderground v.1.15,2013-03-24 20:47:00,
2013-03-24 16:49:00,38.1,36.3,29.47,East,94,2.0,2.0,93,0.05,,,0.55,Wunderground v.1.15,2013-03-24 20:49:00,
2013-03-24 16:53:00,38.2,36.4,29.47,East,94,1.0,3.0,93,0.10,,,0.56,Wunderground v.1.15,2013-03-24 20:53:00,
2013-03-24 16:56:00,31.9,28.5,29.65,SW,235,8.0,15.0,87,0.00,,,0.00,Wunderground v.1.15,2013-03-24 20:56:00,
2013-03-24 16:57:00,38.3,36.5,29.47,North,360,1.0,1.0,93,0.09,,,0.56,Wunderground v.1.15,2013-03-24 20:57:00,
2013-03-24 16:58:00,31.9,28.8,29.66,NW,311,7.0,15.0,88,0.00,,,0.00,Wunderground v.1.15,2013-03-24 20:58:00,
2013-03-24 17:00:00,32.0,28.6,29.66,WSW,257,7.0,9.0,87,0.00,,,0.00,Wunderground v.1.15,2013-03-24 21:00:00,
2013-03-24 17:02:00,38.3,36.5,29.47,East,91,2.0,4.0,93,0.07,,,0.57,Wunderground v.1.15,2013-03-24 21:02:00,
2013-03-24 17:03:00,32.0,28.6,29.66,West,277,7.0,9.0,87,0.00,,,0.00,Wunderground v.1.15,2013-03-24 21:03:00,
2013-03-24 17:04:00,38.3,36.5,29.47,East,82,2.0,4.0,93,0.07,,,0.57,Wunderground v.1.15,2013-03-24 21:04:00,
2013-03-24 17:06:00,38.3,36.5,29.48,North,360,2.0,2.0,93,0.07,,,0.57,Wunderground v.1.15,2013-03-24 21:06:00,
2013-03-24 17:08:00,38.3,36.5,29.48,NW,315,2.0,3.0,93,0.08,,,0.58,Wunderground v.1.15,2013-03-24 21:08:00,
2013-03-24 17:12:00,38.2,36.4,29.48,East,96,2.0,5.0,93,0.08,,,0.58,Wunderground v.1.15,2013-03-24 21:12:00,
2013-03-24 17:13:00,38.2,36.4,29.47,ESE,103,2.0,5.0,93,0.08,,,0.58,Wunderground v.1.15,2013-03-24 21:13:00,
2013-03-24 17:18:00,38.4,36.6,29.48,ENE,76,3.0,3.0,93,0.05,,,0.58,Wunderground v.1.15,2013-03-24 21:18:00,
2013-03-24 17:19:00,38.4,36.6,29.48,ENE,76,3.0,3.0,93,0.05,,,0.58,Wunderground v.1.15,2013-03-24 21:19:00,
2013-03-24 17:20:00,38.4,36.6,29.47,ENE,76,3.0,3.0,93,0.05,,,0.58,Wunderground v.1.15,2013-03-24 21:20:00,
2013-03-24 17:25:00,38.3,36.5,29.47,East,101,1.0,1.0,93,0.00,,,0.58,Wunderground v.1.15,2013-03-24 21:25:00,
2013-03-24 17:26:00,38.3,36.5,29.47,East,101,1.0,1.0,93,0.00,,,0.58,Wunderground v.1.15,2013-03-24 21:26:00,
2013-03-24 17:29:00,32.0,28.8,29.66,WNW,300,5.0,9.0,88,0.00,,,0.00,Wunderground v.1.15,2013-03-24 21:29:00,
2013-03-24 17:30:00,32.0,28.8,29.66,NW,306,6.0,10.0,88,0.00,,,0.00,Wunderground v.1.15,2013-03-24 21:30:00,
2013-03-24 17:33:00,38.3,36.5,29.47,East,88,2.0,3.0,93,0.00,,,0.58,Wunderground v.1.15,2013-03-24 21:33:00,
2013-03-24 17:36:00,38.3,36.5,29.47,East,88,1.0,1.0,93,0.00,,,0.58,Wunderground v.1.15,2013-03-24 21:36:00,
2013-03-24 17:38:00,38.3,36.5,29.47,East,88,1.0,2.0,93,0.00,,,0.58,Wunderground v.1.15,2013-03-24 21:38:00,
2013-03-24 17:40:00,38.3,36.5,29.46,East,84,1.0,2.0,93,0.00,,,0.58,Wunderground v.1.15,2013-03-24 21:40:00,
2013-03-24 17:41:00,32.1,28.9,29.66,West,259,5.0,5.0,88,0.00,,,0.00,Wunderground v.1.15,2013-03-24 21:41:00,
2013-03-24 17:42:00,32.1,28.9,29.66,NW,306,5.0,5.0,88,0.00,,,0.00,Wunderground v.1.15,2013-03-24 21:42:00,
2013-03-24 17:43:00,38.3,36.5,29.46,ESE,109,1.0,2.0,93,0.00,,,0.58,Wunderground v.1.15,2013-03-24 21:43:00,
2013-03-24 17:44:00,38.3,36.5,29.46,ESE,108,1.0,2.0,93,0.00,,,0.58,Wunderground v.1.15,2013-03-24 21:44:00,
2013-03-24 17:45:00,38.3,36.5,29.46,ESE,108,1.0,1.0,93,0.00,,,0.58,Wunderground v.1.15,2013-03-24 21:45:00,
2013-03-24 17:47:00,32.0,28.8,29.67,SW,236,4.0,5.0,88,0.00,,,0.00,Wunderground v.1.15,2013-03-24 21:47:00,
2013-03-24 17:48:00,32.1,28.9,29.67,WNW,300,4.0,5.0,88,0.00,,,0.00,Wunderground v.1.15,2013-03-24 21:48:00,
2013-03-24 17:49:00,32.1,28.9,29.67,WSW,248,4.0,6.0,88,0.00,,,0.00,Wunderground v.1.15,2013-03-24 21:49:00,
2013-03-24 17:51:00,38.3,36.5,29.45,ESE,108,1.0,1.0,93,0.00,,,0.58,Wunderground v.1.15,2013-03-24 21:51:00,
2013-03-24 17:53:00,32.1,28.9,29.67,West,263,5.0,7.0,88,0.00,,,0.00,Wunderground v.1.15,2013-03-24 21:53:00,
2013-03-24 17:56:00,38.4,36.6,29.45,ESE,108,1.0,1.0,93,0.00,,,0.58,Wunderground v.1.15,2013-03-24 21:56:00,
2013-03-24 17:57:00,32.1,28.9,29.67,West,281,5.0,7.0,88,0.00,,,0.00,Wunderground v.1.15,2013-03-24 21:57:00,
2013-03-24 17:59:00,38.5,36.7,29.45,ESE,108,1.0,1.0,93,0.00,,,0.58,Wunderground v.1.15,2013-03-24 21:59:00,
2013-03-24 18:00:00,32.0,29.1,29.67,West,273,5.0,6.0,89,0.00,,,0.00,Wunderground v.1.15,2013-03-24 22:00:00,
2013-03-24 18:06:00,32.0,29.1,29.67,SW,236,5.0,9.0,89,0.00,,,0.00,Wunderground v.1.15,2013-03-24 22:06:00,
2013-03-24 18:07:00,32.0,29.1,29.67,West,275,5.0,9.0,89,0.00,,,0.00,Wunderground v.1.15,2013-03-24 22:07:00,
2013-03-24 18:08:00,38.5,36.7,29.46,ESE,108,1.0,1.0,93,0.00,,,0.58,Wunderground v.1.15,2013-03-24 22:08:00,
2013-03-24 18:09:00,32.0,29.1,29.67,West,261,5.0,9.0,89,0.00,,,0.00,Wunderground v.1.15,2013-03-24 22:09:00,
2013-03-24 18:10:00,32.0,29.1,29.67,WNW,290,5.0,5.0,89,0.00,,,0.00,Wunderground v.1.15,2013-03-24 22:10:00,
2013-03-24 18:12:00,31.9,29.0,29.67,West,263,5.0,5.0,89,0.00,,,0.00,Wunderground v.1.15,2013-03-24 22:12:00,
2013-03-24 18:14:00,31.9,29.0,29.68,West,265,5.0,7.0,89,0.00,,,0.00,Wunderground v.1.15,2013-03-24 22:14:00,
2013-03-24 18:16:00,38.5,36.7,29.46,SE,129,0.0,0.0,93,0.00,,,0.58,Wunderground v.1.15,2013-03-24 22:16:00,
2013-03-24 18:17:00,31.9,29.0,29.68,WSW,258,5.0,8.0,89,0.00,,,0.00,Wunderground v.1.15,2013-03-24 22:17:00,
2013-03-24 18:18:00,31.9,29.0,29.68,NW,306,6.0,8.0,89,0.00,,,0.00,Wunderground v.1.15,2013-03-24 22:18:00,
2013-03-24 18:19:00,31.9,29.0,29.68,WNW,288,6.0,10.0,89,0.00,,,0.00,Wunderground v.1.15,2013-03-24 22:19:00,
2013-03-24 18:21:00,31.9,29.0,29.68,WSW,250,6.0,6.0,89,0.00,,,0.00,Wunderground v.1.15,2013-03-24 22:21:00,
2013-03-24 18:23:00,38.6,36.8,29.46,ESE,107,2.0,3.0,93,0.00,,,0.58,Wunderground v.1.15,2013-03-24 22:23:00,
2013-03-24 18:25:00,31.9,29.0,29.68,WSW,257,7.0,8.0,89,0.00,,,0.00,Wunderground v.1.15,2013-03-24 22:25:00,
2013-03-24 18:26:00,31.9,29.3,29.68,WSW,254,6.0,8.0,90,0.00,,,0.00,Wunderground v.1.15,2013-03-24 22:26:00,
2013-03-24 18:27:00,31.9,29.0,29.68,West,261,6.0,8.0,89,0.00,,,0.00,Wunderground v.1.15,2013-03-24 22:27:00,
2013-03-24 18:29:00,31.9,29.3,29.68,WSW,239,6.0,8.0,90,0.00,,,0.00,Wunderground v.1.15,2013-03-24 22:29:00,
2013-03-24 18:30:00,38.6,36.8,29.46,SE,132,1.0,2.0,93,0.00,,,0.58,Wunderground v.1.15,2013-03-24 22:30:00,
2013-03-24 18:31:00,31.9,29.3,29.68,West,259,6.0,6.0,90,0.00,,,0.00,Wunderground v.1.15,2013-03-24 22:31:00,
2013-03-24 18:35:00,31.9,29.3,29.68,West,269,5.0,7.0,90,0.00,,,0.00,Wunderground v.1.15,2013-03-24 22:35:00,
2013-03-24 18:36:00,31.8,29.2,29.68,West,281,5.0,7.0,90,0.00,,,0.00,Wunderground v.1.15,2013-03-24 22:36:00,
2013-03-24 18:37:00,38.6,36.8,29.46,SE,132,0.0,0.0,93,0.00,,,0.58,Wunderground v.1.15,2013-03-24 22:37:00,
2013-03-24 18:38:00,31.8,29.2,29.68,WSW,256,5.0,7.0,90,0.00,,,0.00,Wunderground v.1.15,2013-03-24 22:38:00,
2013-03-24 18:42:00,31.8,29.2,29.68,WSW,252,5.0,7.0,90,0.00,,,0.00,Wunderground v.1.15,2013-03-24 22:42:00,
2013-03-24 18:43:00,31.9,29.3,29.68,WNW,298,6.0,7.0,90,0.00,,,0.00,Wunderground v.1.15,2013-03-24 22:43:00,
2013-03-24 18:47:00,31.9,29.3,29.68,WSW,258,6.0,7.0,90,0.00,,,0.00,Wunderground v.1.15,2013-03-24 22:47:00,
2013-03-24 18:56:00,31.8,29.2,29.69,WSW,256,5.0,9.0,90,0.00,,,0.00,Wunderground v.1.15,2013-03-24 22:56:00,
2013-03-24 18:57:00,31.8,29.2,29.69,West,280,5.0,9.0,90,0.00,,,0.00,Wunderground v.1.15,2013-03-24 22:57:00,
2013-03-24 18:58:00,31.8,29.2,29.69,West,262,5.0,9.0,90,0.00,,,0.00,Wunderground v.1.15,2013-03-24 22:58:00,
2013-03-24 18:59:00,31.8,29.2,29.69,WSW,242,5.0,9.0,90,0.00,,,0.00,Wunderground v.1.15,2013-03-24 22:59:00,
2013-03-24 19:00:00,31.8,29.2,29.69,WSW,258,5.0,5.0,90,0.00,,,0.00,Wunderground v.1.15,2013-03-24 23:00:00,
2013-03-24 19:01:00,31.8,29.2,29.69,West,276,5.0,10.0,90,0.00,,,0.00,Wunderground v.1.15,2013-03-24 23:01:00,
2013-03-24 19:04:00,31.9,29.3,29.69,WNW,286,6.0,10.0,90,0.00,,,0.00,Wunderground v.1.15,2013-03-24 23:04:00,
2013-03-24 19:05:00,31.9,29.3,29.69,WSW,257,6.0,10.0,90,0.00,,,0.00,Wunderground v.1.15,2013-03-24 23:05:00,
2013-03-24 19:06:00,31.8,29.2,29.69,West,261,6.0,10.0,90,0.00,,,0.00,Wunderground v.1.15,2013-03-24 23:06:00,
2013-03-24 19:07:00,31.9,29.3,29.69,WNW,292,6.0,10.0,90,0.00,,,0.00,Wunderground v.1.15,2013-03-24 23:07:00,
2013-03-24 19:11:00,31.9,29.3,29.69,West,261,6.0,7.0,90,0.00,,,0.00,Wunderground v.1.15,2013-03-24 23:11:00,
2013-03-24 19:12:00,31.9,29.3,29.69,WNW,292,6.0,9.0,90,0.00,,,0.00,Wunderground v.1.15,2013-03-24 23:12:00,
2013-03-24 19:13:00,38.7,37.1,29.48,SE,132,0.0,0.0,94,0.00,,,0.58,Wunderground v.1.15,2013-03-24 23:13:00,
2013-03-24 19:15:00,31.9,29.3,29.69,West,276,6.0,9.0,90,0.00,,,0.00,Wunderground v.1.15,2013-03-24 23:15:00,
2013-03-24 19:16:00,31.9,29.3,29.70,West,274,6.0,9.0,90,0.00,,,0.00,Wunderground v.1.15,2013-03-24 23:16:00,
2013-03-24 19:19:00,31.9,29.3,29.70,West,274,6.0,9.0,90,0.00,,,0.00,Wunderground v.1.15,2013-03-24 23:19:00,
2013-03-24 19:21:00,31.8,29.2,29.70,West,279,5.0,6.0,90,0.00,,,0.00,Wunderground v.1.15,2013-03-24 23:21:00,
2013-03-24 19:22:00,31.8,29.5,29.70,WSW,255,5.0,7.0,91,0.00,,,0.00,Wunderground v.1.15,2013-03-24 23:22:00,
2013-03-24 19:26:00,38.8,37.2,29.49,SE,138,0.0,0.0,94,0.00,,,0.58,Wunderground v.1.15,2013-03-24 23:26:00,
2013-03-24 19:32:00,38.8,37.2,29.48,SE,138,0.0,0.0,94,0.00,,,0.58,Wunderground v.1.15,2013-03-24 23:32:00,
2013-03-24 19:37:00,38.9,37.3,29.48,South,183,1.0,3.0,94,0.00,,,0.58,Wunderground v.1.15,2013-03-24 23:37:00,
2013-03-24 19:41:00,38.9,37.3,29.49,South,183,1.0,3.0,94,0.00,,,0.58,Wunderground v.1.15,2013-03-24 23:41:00,
2013-03-24 19:44:00,39.0,37.4,29.49,South,183,1.0,3.0,94,0.00,,,0.58,Wunderground v.1.15,2013-03-24 23:44:00,
2013-03-24 19:49:00,39.0,37.4,29.49,SSW,210,1.0,3.0,94,0.00,,,0.58,Wunderground v.1.15,2013-03-24 23:49:00,
2013-03-24 19:50:00,39.0,37.4,29.49,SSW,210,1.0,3.0,94,0.00,,,0.58,Wunderground v.1.15,2013-03-24 23:50:00,
2013-03-24 19:55:00,39.1,37.5,29.49,SSW,205,1.0,1.0,94,0.00,,,0.58,Wunderground v.1.15,2013-03-24 23:55:00,
2013-03-24 19:56:00,31.5,29.2,29.71,WNW,300,6.0,7.0,91,0.00,,,0.00,Wunderground v.1.15,2013-03-24 23:56:00,
2013-03-24 19:59:00,31.5,29.2,29.71,NW,305,5.0,7.0,91,0.00,,,0.00,Wunderground v.1.15,2013-03-24 23:59:00,
2013-03-24 20:00:00,39.1,37.5,29.49,SSW,198,1.0,2.0,94,0.00,,,0.58,Wunderground v.1.15,2013-03-25 00:00:00,
2013-03-24 20:06:00,39.3,37.7,29.49,SW,216,2.0,2.0,94,0.00,,,0.58,Wunderground v.1.15,2013-03-25 00:06:00,
2013-03-24 20:07:00,31.2,28.6,29.72,WNW,296,6.0,9.0,90,0.00,,,0.00,Wunderground v.1.15,2013-03-25 00:07:00,
2013-03-24 20:10:00,31.2,28.6,29.72,NW,326,6.0,6.0,90,0.00,,,0.00,Wunderground v.1.15,2013-03-25 00:10:00,
2013-03-24 20:11:00,39.4,37.8,29.49,SSW,203,3.0,8.0,94,0.00,,,0.58,Wunderground v.1.15,2013-03-25 00:11:00,
2013-03-24 20:17:00,39.7,38.1,29.49,SW,234,4.0,4.0,94,0.00,,,0.58,Wunderground v.1.15,2013-03-25 00:17:00,
2013-03-24 20:18:00,39.7,38.1,29.49,WSW,237,4.0,5.0,94,0.00,,,0.58,Wunderground v.1.15,2013-03-25 00:18:00,
2013-03-24 20:25:00,40.0,38.1,29.49,WSW,252,5.0,6.0,93,0.00,,,0.58,Wunderground v.1.15,2013-03-25 00:25:00,
2013-03-24 20:27:00,40.0,38.1,29.49,WNW,286,5.0,6.0,93,0.00,,,0.58,Wunderground v.1.15,2013-03-25 00:27:00,
2013-03-24 20:29:00,40.0,37.9,29.49,WSW,241,5.0,6.0,92,0.00,,,0.58,Wunderground v.1.15,2013-03-25 00:29:00,
2013-03-24 20:32:00,31.0,28.7,29.73,WNW,294,4.0,6.0,91,0.00,,,0.00,Wunderground v.1.15,2013-03-25 00:32:00,
2013-03-24 20:33:00,40.1,38.0,29.49,WSW,242,5.0,6.0,92,0.00,,,0.58,Wunderground v.1.15,2013-03-25 00:33:00,
2013-03-24 20:34:00,40.1,38.0,29.49,West,277,5.0,6.0,92,0.00,,,0.58,Wunderground v.1.15,2013-03-25 00:34:00,
2013-03-24 20:35:00,31.0,28.7,29.73,West,280,4.0,6.0,91,0.00,,,0.00,Wunderground v.1.15,2013-03-25 00:35:00,
2013-03-24 20:38:00,31.0,28.7,29.74,WNW,282,4.0,8.0,91,0.00,,,0.00,Wunderground v.1.15,2013-03-25 00:38:00,
2013-03-24 20:39:00,31.0,28.7,29.73,West,271,5.0,8.0,91,0.00,,,0.00,Wunderground v.1.15,2013-03-25 00:39:00,
2013-03-24 20:40:00,40.2,37.8,29.50,West,261,5.0,7.0,91,0.00,,,0.59,Wunderground v.1.15,2013-03-25 00:40:00,
2013-03-24 20:41:00,40.2,37.8,29.50,WSW,246,6.0,7.0,91,0.00,,,0.59,Wunderground v.1.15,2013-03-25 00:41:00,
2013-03-24 20:42:00,31.0,28.7,29.74,WSW,244,5.0,5.0,91,0.00,,,0.00,Wunderground v.1.15,2013-03-25 00:42:00,
2013-03-24 20:43:00,31.0,28.7,29.74,WNW,292,5.0,5.0,91,0.00,,,0.00,Wunderground v.1.15,2013-03-25 00:43:00,
2013-03-24 20:45:00,31.0,28.7,29.74,West,267,5.0,5.0,91,0.00,,,0.00,Wunderground v.1.15,2013-03-25 00:45:00,
2013-03-24 20:46:00,40.2,37.8,29.50,SW,218,6.0,6.0,91,0.00,,,0.59,Wunderground v.1.15,2013-03-25 00:46:00,
2013-03-24 20:47:00,40.1,37.4,29.50,West,267,6.0,6.0,90,0.00,,,0.59,Wunderground v.1.15,2013-03-25 00:47:00,
2013-03-24 20:51:00,31.0,28.7,29.74,West,275,4.0,6.0,91,0.00,,,0.00,Wunderground v.1.15,2013-03-25 00:51:00,
2013-03-24 20:52:00,31.0,28.7,29.74,West,267,4.0,6.0,91,0.00,,,0.00,Wunderground v.1.15,2013-03-25 00:52:00,
2013-03-24 20:53:00,40.0,37.3,29.50,WSW,254,7.0,10.0,90,0.00,,,0.59,Wunderground v.1.15,2013-03-25 00:53:00,
2013-03-24 20:54:00,31.1,28.8,29.74,WNW,282,4.0,6.0,91,0.00,,,0.00,Wunderground v.1.15,2013-03-25 00:54:00,
2013-03-24 20:55:00,31.1,28.8,29.74,WSW,254,4.0,6.0,91,0.00,,,0.00,Wunderground v.1.15,2013-03-25 00:55:00,
2013-03-24 20:56:00,31.1,28.8,29.74,NW,309,4.0,6.0,91,0.00,,,0.00,Wunderground v.1.15,2013-03-25 00:56:00,
2013-03-24 20:58:00,31.1,28.8,29.75,WSW,255,4.0,12.0,91,0.00,,,0.00,Wunderground v.1.15,2013-03-25 00:58:00,
2013-03-24 20:59:00,39.8,37.4,29.50,West,259,6.0,8.0,91,0.00,,,0.59,Wunderground v.1.15,2013-03-25 00:59:00,
2013-03-24 21:00:00,39.8,37.1,29.50,SSW,204,6.0,8.0,90,0.00,,,0.59,Wunderground v.1.15,2013-03-25 01:00:00,
2013-03-24 21:03:00,31.0,28.7,29.75,NW,306,5.0,6.0,91,0.00,,,0.00,Wunderground v.1.15,2013-03-25 01:03:00,
2013-03-24 21:04:00,31.0,28.7,29.75,WNW,295,5.0,6.0,91,0.00,,,0.00,Wunderground v.1.15,2013-03-25 01:04:00,
2013-03-24 21:05:00,31.0,28.7,29.75,West,269,5.0,7.0,91,0.00,,,0.00,Wunderground v.1.15,2013-03-25 01:05:00,
2013-03-24 21:06:00,31.0,28.7,29.75,WNW,283,6.0,7.0,91,0.00,,,0.00,Wunderground v.1.15,2013-03-25 01:06:00,
2013-03-24 21:07:00,39.2,36.5,29.51,WNW,291,8.0,12.0,90,0.00,,,0.59,Wunderground v.1.15,2013-03-25 01:07:00,
2013-03-24 21:09:00,39.0,36.3,29.51,WNW,286,9.0,17.0,90,0.00,,,0.59,Wunderground v.1.15,2013-03-25 01:09:00,
2013-03-24 21:10:00,30.9,28.6,29.75,West,278,5.0,5.0,91,0.00,,,0.00,Wunderground v.1.15,2013-03-25 01:10:00,
2013-03-24 21:11:00,30.9,28.6,29.75,West,269,5.0,5.0,91,0.00,,,0.00,Wunderground v.1.15,2013-03-25 01:11:00,
2013-03-24 21:13:00,38.7,35.7,29.52,West,277,9.0,17.0,89,0.00,,,0.59,Wunderground v.1.15,2013-03-25 01:13:00,
2013-03-24 21:14:00,30.9,28.6,29.75,NW,326,5.0,10.0,91,0.00,,,0.00,Wunderground v.1.15,2013-03-25 01:14:00,
2013-03-24 21:15:00,38.7,35.7,29.51,West,262,9.0,17.0,89,0.00,,,0.59,Wunderground v.1.15,2013-03-25 01:15:00,
2013-03-24 21:17:00,30.9,28.6,29.76,West,261,5.0,11.0,91,0.00,,,0.00,Wunderground v.1.15,2013-03-25 01:17:00,
2013-03-24 21:18:00,30.9,28.6,29.76,West,271,5.0,11.0,91,0.00,,,0.00,Wunderground v.1.15,2013-03-25 01:18:00,
2013-03-24 21:20:00,38.3,35.6,29.52,West,281,7.0,9.0,90,0.00,,,0.59,Wunderground v.1.15,2013-03-25 01:20:00,
2013-03-24 21:21:00,31.0,28.7,29.76,West,279,5.0,8.0,91,0.00,,,0.00,Wunderground v.1.15,2013-03-25 01:21:00,
2013-03-24 21:23:00,38.2,35.5,29.52,SW,229,7.0,11.0,90,0.00,,,0.59,Wunderground v.1.15,2013-03-25 01:23:00,
2013-03-24 21:24:00,30.9,28.6,29.76,WNW,297,5.0,8.0,91,0.00,,,0.00,Wunderground v.1.15,2013-03-25 01:24:00,
2013-03-24 21:27:00,31.0,28.7,29.76,West,263,5.0,8.0,91,0.00,,,0.00,Wunderground v.1.15,2013-03-25 01:27:00,
2013-03-24 21:28:00,38.0,35.3,29.52,WSW,248,7.0,9.0,90,0.00,,,0.59,Wunderground v.1.15,2013-03-25 01:28:00,
2013-03-24 21:35:00,37.8,35.1,29.52,WNW,292,6.0,6.0,90,0.00,,,0.59,Wunderground v.1.15,2013-03-25 01:35:00,
2013-03-24 21:36:00,31.1,28.8,29.76,WNW,298,6.0,11.0,91,0.00,,,0.00,Wunderground v.1.15,2013-03-25 01:36:00,
2013-03-24 21:37:00,31.1,28.8,29.76,WNW,286,6.0,11.0,91,0.00,,,0.00,Wunderground v.1.15,2013-03-25 01:37:00,
2013-03-24 21:38:00,31.2,28.9,29.77,WNW,293,6.0,11.0,91,0.00,,,0.00,Wunderground v.1.15,2013-03-25 01:38:00,
2013-03-24 21:40:00,37.7,35.0,29.52,West,281,6.0,9.0,90,0.00,,,0.59,Wunderground v.1.15,2013-03-25 01:40:00,
2013-03-24 21:41:00,31.3,29.0,29.77,West,269,6.0,6.0,91,0.00,,,0.00,Wunderground v.1.15,2013-03-25 01:41:00,
2013-03-24 21:43:00,37.6,34.9,29.52,WSW,247,6.0,13.0,90,0.00,,,0.59,Wunderground v.1.15,2013-03-25 01:43:00,
2013-03-24 21:48:00,31.5,29.2,29.77,WNW,303,6.0,6.0,91,0.00,,,0.00,Wunderground v.1.15,2013-03-25 01:48:00,
2013-03-24 21:49:00,31.5,29.2,29.77,NW,317,6.0,6.0,91,0.00,,,0.00,Wunderground v.1.15,2013-03-25 01:49:00,
2013-03-24 21:51:00,37.3,34.6,29.53,SW,236,7.0,14.0,90,0.00,,,0.59,Wunderground v.1.15,2013-03-25 01:51:00,
2013-03-24 21:52:00,31.5,29.2,29.77,NNW,328,6.0,7.0,91,0.00,,,0.00,Wunderground v.1.15,2013-03-25 01:52:00,
2013-03-24 21:53:00,31.6,29.3,29.77,WNW,300,6.0,7.0,91,0.00,,,0.00,Wunderground v.1.15,2013-03-25 01:53:00,
2013-03-24 21:58:00,31.7,29.4,29.78,WNW,283,5.0,8.0,91,0.00,,,0.00,Wunderground v.1.15,2013-03-25 01:58:00,
2013-03-24 22:00:00,36.9,34.2,29.53,WSW,245,7.0,10.0,90,0.00,,,0.59,Wunderground v.1.15,2013-03-25 02:00:00,
2013-03-24 22:03:00,31.7,29.4,29.78,WNW,301,6.0,10.0,91,0.00,,,0.00,Wunderground v.1.15,2013-03-25 02:03:00,
2013-03-24 22:04:00,31.7,29.1,29.78,WSW,251,7.0,10.0,90,0.00,,,0.00,Wunderground v.1.15,2013-03-25 02:04:00,
2013-03-24 22:05:00,31.7,29.1,29.78,WNW,298,7.0,10.0,90,0.00,,,0.00,Wunderground v.1.15,2013-03-25 02:05:00,
2013-03-24 22:06:00,36.3,33.6,29.54,WSW,238,9.0,9.0,90,0.00,,,0.59,Wunderground v.1.15,2013-03-25 02:06:00,
2013-03-24 22:07:00,31.7,29.1,29.78,WNW,301,7.0,10.0,90,0.00,,,0.00,Wunderground v.1.15,2013-03-25 02:07:00,
2013-03-24 22:08:00,31.7,29.1,29.78,NW,304,7.0,10.0,90,0.00,,,0.00,Wunderground v.1.15,2013-03-25 02:08:00,
2013-03-24 22:10:00,31.9,29.3,29.78,West,277,8.0,8.0,90,0.00,,,0.00,Wunderground v.1.15,2013-03-25 02:10:00,
2013-03-24 22:12:00,36.0,33.4,29.54,West,263,9.0,10.0,90,0.00,,,0.59,Wunderground v.1.15,2013-03-25 02:12:00,
2013-03-24 22:13:00,31.9,29.0,29.78,West,278,8.0,12.0,89,0.00,,,0.00,Wunderground v.1.15,2013-03-25 02:13:00,
2013-03-24 22:15:00,35.9,33.3,29.53,West,265,8.0,8.0,90,0.00,,,0.59,Wunderground v.1.15,2013-03-25 02:15:00,
2013-03-24 22:16:00,32.1,29.2,29.78,West,268,7.0,12.0,89,0.00,,,0.00,Wunderground v.1.15,2013-03-25 02:16:00,
2013-03-24 22:17:00,35.8,33.4,29.53,SW,223,8.0,8.0,91,0.00,,,0.59,Wunderground v.1.15,2013-03-25 02:17:00,
2013-03-24 22:19:00,32.2,29.3,29.78,WNW,283,8.0,12.0,89,0.00,,,0.00,Wunderground v.1.15,2013-03-25 02:19:00,
2013-03-24 22:21:00,32.3,29.1,29.78,NW,317,8.0,9.0,88,0.00,,,0.00,Wunderground v.1.15,2013-03-25 02:21:00,
2013-03-24 22:23:00,35.5,32.9,29.54,WSW,254,7.0,10.0,90,0.00,,,0.59,Wunderground v.1.15,2013-03-25 02:23:00,
2013-03-24 22:25:00,35.5,32.9,29.54,WSW,237,8.0,8.0,90,0.00,,,0.59,Wunderground v.1.15,2013-03-25 02:25:00,
2013-03-24 22:26:00,32.3,29.1,29.79,West,263,8.0,11.0,88,0.00,,,0.00,Wunderground v.1.15,2013-03-25 02:26:00,
2013-03-24 22:27:00,32.3,29.1,29.79,North,360,8.0,11.0,88,0.00,,,0.00,Wunderground v.1.15,2013-03-25 02:27:00,
2013-03-24 22:28:00,32.4,29.2,29.79,West,275,8.0,11.0,88,0.00,,,0.00,Wunderground v.1.15,2013-03-25 02:28:00,
2013-03-24 22:31:00,35.4,32.8,29.54,WNW,298,7.0,15.0,90,0.00,,,0.59,Wunderground v.1.15,2013-03-25 02:31:00,
2013-03-24 22:33:00,32.5,29.6,29.79,SW,232,7.0,8.0,89,0.00,,,0.00,Wunderground v.1.15,2013-03-25 02:33:00,
2013-03-24 22:34:00,32.5,29.6,29.79,WNW,283,7.0,8.0,89,0.00,,,0.00,Wunderground v.1.15,2013-03-25 02:34:00,
2013-03-24 22:35:00,32.4,29.5,29.79,WSW,249,7.0,8.0,89,0.00,,,0.00,Wunderground v.1.15,2013-03-25 02:35:00,
2013-03-24 22:39:00,35.5,32.9,29.54,West,277,7.0,7.0,90,0.00,,,0.60,Wunderground v.1.15,2013-03-25 02:39:00,
2013-03-24 22:40:00,35.5,32.9,29.55,NW,307,6.0,7.0,90,0.00,,,0.60,Wunderground v.1.15,2013-03-25 02:40:00,
2013-03-24 22:41:00,32.2,29.0,29.79,West,271,7.0,12.0,88,0.00,,,0.00,Wunderground v.1.15,2013-03-25 02:41:00,
2013-03-24 22:42:00,32.3,29.4,29.80,West,275,7.0,12.0,89,0.00,,,0.00,Wunderground v.1.15,2013-03-25 02:42:00,
2013-03-24 22:43:00,32.3,29.4,29.80,WNW,297,7.0,12.0,89,0.00,,,0.00,Wunderground v.1.15,2013-03-25 02:43:00,
2013-03-24 22:44:00,32.3,29.4,29.80,West,269,7.0,12.0,89,0.00,,,0.00,Wunderground v.1.15,2013-03-25 02:44:00,
2013-03-24 22:45:00,32.4,29.5,29.80,West,259,7.0,12.0,89,0.00,,,0.00,Wunderground v.1.15,2013-03-25 02:45:00,
2013-03-24 22:46:00,35.4,32.8,29.55,WSW,248,7.0,9.0,90,0.00,,,0.60,Wunderground v.1.15,2013-03-25 02:46:00,
2013-03-24 22:47:00,35.4,32.8,29.55,West,278,7.0,9.0,90,0.00,,,0.60,Wunderground v.1.15,2013-03-25 02:47:00,
2013-03-24 22:49:00,35.4,32.8,29.55,SW,233,8.0,11.0,90,0.00,,,0.60,Wunderground v.1.15,2013-03-25 02:49:00,
2013-03-24 22:50:00,32.3,29.1,29.80,NNW,329,6.0,6.0,88,0.00,,,0.00,Wunderground v.1.15,2013-03-25 02:50:00,
2013-03-24 22:52:00,32.4,29.5,29.80,West,269,6.0,8.0,89,0.00,,,0.00,Wunderground v.1.15,2013-03-25 02:52:00,
2013-03-24 22:53:00,32.4,29.5,29.80,West,275,6.0,8.0,89,0.00,,,0.00,Wunderground v.1.15,2013-03-25 02:53:00,
2013-03-24 22:54:00,32.5,29.6,29.80,West,270,6.0,8.0,89,0.00,,,0.00,Wunderground v.1.15,2013-03-25 02:54:00,
2013-03-24 22:56:00,32.5,29.3,29.80,West,263,6.0,8.0,88,0.00,,,0.00,Wunderground v.1.15,2013-03-25 02:56:00,
2013-03-24 22:57:00,35.3,32.7,29.55,SW,232,7.0,9.0,90,0.00,,,0.60,Wunderground v.1.15,2013-03-25 02:57:00,
2013-03-24 22:59:00,32.6,29.7,29.81,NW,313,6.0,9.0,89,0.00,,,0.00,Wunderground v.1.15,2013-03-25 02:59:00,
2013-03-24 23:00:00,32.8,29.9,29.81,West,269,6.0,6.0,89,0.00,,,0.00,Wunderground v.1.15,2013-03-25 03:00:00,
2013-03-24 23:01:00,35.2,32.6,29.56,SW,236,7.0,9.0,90,0.00,,,0.60,Wunderground v.1.15,2013-03-25 03:01:00,
2013-03-24 23:03:00,32.8,29.6,29.81,West,276,7.0,7.0,88,0.00,,,0.00,Wunderground v.1.15,2013-03-25 03:03:00,
2013-03-24 23:05:00,32.7,29.5,29.81,NW,313,7.0,11.0,88,0.00,,,0.00,Wunderground v.1.15,2013-03-25 03:05:00,
2013-03-24 23:07:00,35.1,32.5,29.56,WSW,248,7.0,9.0,90,0.00,,,0.60,Wunderground v.1.15,2013-03-25 03:07:00,
2013-03-24 23:09:00,35.1,32.5,29.56,SSW,207,7.0,9.0,90,0.00,,,0.60,Wunderground v.1.15,2013-03-25 03:09:00,
2013-03-24 23:12:00,32.7,29.5,29.81,WNW,284,8.0,8.0,88,0.00,,,0.00,Wunderground v.1.15,2013-03-25 03:12:00,
2013-03-24 23:13:00,34.9,32.3,29.56,West,277,7.0,11.0,90,0.00,,,0.60,Wunderground v.1.15,2013-03-25 03:13:00,
2013-03-24 23:17:00,34.6,32.0,29.56,WSW,254,7.0,10.0,90,0.00,,,0.60,Wunderground v.1.15,2013-03-25 03:17:00,
2013-03-24 23:19:00,34.4,31.8,29.56,SSW,213,7.0,10.0,90,0.00,,,0.60,Wunderground v.1.15,2013-03-25 03:19:00,
2013-03-24 23:20:00,32.9,29.7,29.82,WNW,298,6.0,6.0,88,0.00,,,0.01,Wunderground v.1.15,2013-03-25 03:20:00,
2013-03-24 23:21:00,32.9,29.7,29.81,WNW,293,6.0,14.0,88,0.00,,,0.01,Wunderground v.1.15,2013-03-25 03:21:00,
2013-03-24 23:22:00,34.2,31.6,29.56,WSW,239,7.0,11.0,90,0.00,,,0.60,Wunderground v.1.15,2013-03-25 03:22:00,
2013-03-24 23:23:00,32.8,29.6,29.81,West,273,6.0,14.0,88,0.00,,,0.01,Wunderground v.1.15,2013-03-25 03:23:00,
2013-03-24 23:27:00,34.1,31.7,29.56,SW,221,7.0,15.0,91,0.00,,,0.60,Wunderground v.1.15,2013-03-25 03:27:00,
2013-03-24 23:29:00,34.0,31.6,29.56,SW,234,7.0,15.0,91,0.00,,,0.60,Wunderground v.1.15,2013-03-25 03:29:00,
2013-03-24 23:31:00,34.0,31.6,29.56,WSW,250,7.0,15.0,91,0.00,,,0.60,Wunderground v.1.15,2013-03-25 03:31:00,
2013-03-24 23:33:00,34.0,31.6,29.56,West,262,7.0,15.0,91,0.00,,,0.60,Wunderground v.1.15,2013-03-25 03:33:00,
2013-03-24 23:35:00,34.0,31.6,29.56,WSW,250,7.0,15.0,91,0.00,,,0.60,Wunderground v.1.15,2013-03-25 03:35:00,
2013-03-24 23:38:00,33.9,31.6,29.56,SW,224,6.0,7.0,91,0.00,,,0.60,Wunderground v.1.15,2013-03-25 03:38:00,
2013-03-24 23:42:00,33.9,31.6,29.56,SW,223,6.0,13.0,91,0.00,,,0.60,Wunderground v.1.15,2013-03-25 03:42:00,
2013-03-24 23:45:00,33.9,31.6,29.56,WSW,240,6.0,6.0,91,0.00,,,0.60,Wunderground v.1.15,2013-03-25 03:45:00,
2013-03-24 23:46:00,33.9,31.6,29.56,West,262,6.0,6.0,91,0.00,,,0.60,Wunderground v.1.15,2013-03-25 03:46:00,
2013-03-24 23:48:00,33.9,31.6,29.56,SW,221,7.0,12.0,91,0.00,,,0.60,Wunderground v.1.15,2013-03-25 03:48:00,
2013-03-24 23:51:00,32.8,29.9,29.83,NW,308,7.0,8.0,89,0.00,,,0.01,Wunderground v.1.15,2013-03-25 03:51:00,
2013-03-24 23:53:00,33.9,31.6,29.56,SW,221,7.0,12.0,91,0.00,,,0.60,Wunderground v.1.15,2013-03-25 03:53:00,
2013-03-24 23:54:00,33.9,31.6,29.56,WSW,242,7.0,12.0,91,0.00,,,0.60,Wunderground v.1.15,2013-03-25 03:54:00,
2013-03-24 23:55:00,33.0,30.1,29.83,WSW,254,6.0,10.0,89,0.00,,,0.01,Wunderground v.1.15,2013-03-25 03:55:00,
2013-03-24 23:56:00,33.9,31.6,29.56,WSW,248,6.0,6.0,91,0.00,,,0.60,Wunderground v.1.15,2013-03-25 03:56:00,